| time (UTC) | temp F | wind direction | speed knots | gust knots | rain 1hr in | rain 24hr in | rain mn in | humidity % | barometer mb |
| 20260902014904 | 0 | 190 | 3.5 | 5.2 | 0.00 | 0.01 | 0.00 | 1020.1 | |
| 20260902014802 | 0 | 186 | 3.5 | 5.2 | 0.00 | 0.01 | 0.00 | 1020.1 | |
| 20260902014702 | 0 | 197 | 2.6 | 5.2 | 0.00 | 0.01 | 0.00 | 1020.1 | |
| 20260902014603 | 0 | 186 | 2.6 | 5.2 | 0.00 | 0.01 | 0.00 | 1020.1 | |
| 20260902014502 | 0 | 186 | 2.6 | 5.2 | 0.00 | 0.01 | 0.00 | 1020.1 | |
| 20260902014403 | 0 | 185 | 2.6 | 5.2 | 0.00 | 0.01 | 0.00 | 1020.1 | |
| 20260902014303 | 0 | 183 | 2.6 | 5.2 | 0.00 | 0.01 | 0.00 | 1020.2 | |
| 20260902014204 | 0 | 176 | 3.5 | 5.2 | 0.00 | 0.01 | 0.00 | 1020.1 | |
| 20260902014102 | 0 | 175 | 3.5 | 5.2 | 0.00 | 0.01 | 0.00 | 1020.0 | |
| 20260902014002 | 0 | 159 | 3.5 | 5.2 | 0.00 | 0.01 | 0.00 | 1020.2 | |
| 20260902013903 | 0 | 175 | 1.7 | 5.2 | 0.00 | 0.01 | 0.00 | 1020.2 | |
| 20260902013803 | 0 | 171 | 2.6 | 5.2 | 0.00 | 0.01 | 0.00 | 1020.2 | |
| 20260902013701 | 0 | 171 | 2.6 | 5.2 | 0.00 | 0.01 | 0.00 | 1020.2 | |
| 20260902013603 | 0 | 171 | 2.6 | 5.2 | 0.00 | 0.01 | 0.00 | 1020.2 | |
| 20260902013504 | 0 | 171 | 2.6 | 5.2 | 0.00 | 0.01 | 0.00 | 1020.1 | |
| 20260902013404 | 0 | 171 | 3.5 | 5.2 | 0.00 | 0.01 | 0.00 | 1020.1 | |
| 20260902013304 | 0 | 171 | 3.5 | 5.2 | 0.00 | 0.01 | 0.00 | 1020.1 | |
| 20260902013203 | 0 | 173 | 3.5 | 5.2 | 0.00 | 0.01 | 0.00 | 1020.1 | |
| 20260902013102 | 0 | 173 | 3.5 | 5.2 | 0.00 | 0.01 | 0.00 | 1020.1 | |
| 20260902013001 | 0 | 173 | 3.5 | 5.2 | 0.00 | 0.01 | 0.00 | 1020.1 | |
| 20260902012902 | 0 | 176 | 2.6 | 5.2 | 0.00 | 0.01 | 0.00 | 1020.1 | |
| 20260902012803 | 0 | 176 | 3.5 | 5.2 | 0.00 | 0.01 | 0.00 | 1020.1 | |
| 20260902012702 | 0 | 178 | 3.5 | 5.2 | 0.00 | 0.01 | 0.00 | 1020.1 | |
| 20260902012605 | 0 | 179 | 3.5 | 5.2 | 0.00 | 0.01 | 0.00 | 1020.2 | |
| 20260902012503 | 0 | 179 | 3.5 | 5.2 | 0.00 | 0.01 | 0.00 | 1020.2 | |
| 20260902012402 | 0 | 171 | 3.5 | 5.2 | 0.00 | 0.01 | 0.00 | 1020.2 | |
| 20260902012308 | 0 | 172 | 2.6 | 4.3 | 0.00 | 0.01 | 0.00 | 1020.1 | |
| 20260902012203 | 0 | 172 | 2.6 | 4.3 | 0.00 | 0.01 | 0.00 | 1020.2 | |
| 20260902012105 | 0 | 173 | 2.6 | 4.3 | 0.00 | 0.01 | 0.00 | 1020.1 | |
| 20260902012003 | 0 | 173 | 2.6 | 4.3 | 0.00 | 0.01 | 0.00 | 1020.3 | |
| 20260902011901 | 0 | 173 | 2.6 | 4.3 | 0.00 | 0.01 | 0.00 | 1020.3 | |
| 20260902011801 | 0 | 172 | 2.6 | 4.3 | 0.00 | 0.01 | 0.00 | 1020.3 | |
| 20260902011701 | 0 | 172 | 2.6 | 4.3 | 0.00 | 0.01 | 0.00 | 1020.2 | |
| 20260902011601 | 0 | 172 | 3.5 | 4.3 | 0.00 | 0.01 | 0.00 | 1020.2 | |
| 20260902011504 | 0 | 172 | 2.6 | 4.3 | 0.00 | 0.01 | 0.00 | 1020.2 | |
| 20260902011402 | 0 | 172 | 2.6 | 4.3 | 0.00 | 0.01 | 0.00 | 1020.2 | |
| 20260902011301 | 0 | 172 | 2.6 | 4.3 | 0.00 | 0.01 | 0.00 | 1020.2 | |
| 20260902011201 | 0 | 172 | 2.6 | 4.3 | 0.00 | 0.01 | 0.00 | 1020.2 | |
| 20260902011101 | 0 | 172 | 2.6 | 4.3 | 0.00 | 0.01 | 0.00 | 1020.2 | |
| 20260902011001 | 0 | 172 | 2.6 | 4.3 | 0.00 | 0.01 | 0.00 | 1020.2 | |
| 20260902010901 | 0 | 172 | 2.6 | 4.3 | 0.00 | 0.01 | 0.00 | 1020.2 | |
| 20260902010801 | 0 | 172 | 1.7 | 4.3 | 0.00 | 0.01 | 0.00 | 1020.3 | |
| 20260902010703 | 0 | 172 | 1.7 | 4.3 | 0.00 | 0.01 | 0.00 | 1020.2 | |
| 20260902010602 | 0 | 172 | 2.6 | 4.3 | 0.00 | 0.01 | 0.00 | 1020.3 | |
| 20260902010501 | 0 | 172 | 2.6 | 4.3 | 0.00 | 0.01 | 0.00 | 1020.2 | |
| 20260902010403 | 0 | 172 | 2.6 | 4.3 | 0.00 | 0.01 | 0.00 | 1020.2 | |
| 20260902010300 | 0 | 172 | 1.7 | 5.2 | 0.00 | 0.01 | 0.00 | 1020.3 | |
| 20260902010202 | 0 | 172 | 1.7 | 5.2 | 0.00 | 0.01 | 0.00 | 1020.3 | |
| 20260902010101 | 0 | 172 | 2.6 | 5.2 | 0.00 | 0.01 | 0.00 | 1020.3 | |
| 20260902010001 | 0 | 171 | 3.5 | 5.2 | 0.00 | 0.02 | 0.00 | 1020.3 | |
| 20260902005901 | 0 | 172 | 1.7 | 5.2 | 0.00 | 0.02 | 0.00 | 1020.4 | |
| 20260902005800 | 0 | 175 | 1.7 | 5.2 | 0.00 | 0.02 | 0.00 | 1020.3 | |
| 20260902005701 | 0 | 175 | 1.7 | 5.2 | 0.00 | 0.02 | 0.00 | 1020.3 | |
| 20260902005603 | 0 | 175 | 1.7 | 5.2 | 0.00 | 0.04 | 0.00 | 1020.4 | |
| 20260902005501 | 0 | 175 | 2.6 | 5.2 | 0.00 | 0.07 | 0.00 | 1020.3 | |
| 20260902005401 | 0 | 175 | 3.5 | 5.2 | 0.00 | 0.09 | 0.00 | 1020.3 | |
| 20260902005301 | 0 | 175 | 2.6 | 4.3 | 0.00 | 0.14 | 0.00 | 1020.3 | |
| 20260902005201 | 0 | 168 | 2.6 | 5.2 | 0.00 | 0.25 | 0.00 | 1020.4 | |
| 20260902005101 | 0 | 165 | 2.6 | 5.2 | 0.00 | 0.25 | 0.00 | 1020.4 | |
| 20260902005004 | 0 | 164 | 1.7 | 5.2 | 0.00 | 0.25 | 0.00 | 1020.4 | |
| 20260902004901 | 0 | 164 | 1.7 | 5.2 | 0.00 | 0.25 | 0.00 | 1020.4 | |
| 20260902004802 | 0 | 164 | 2.6 | 5.2 | 0.00 | 0.25 | 0.00 | 1020.3 | |
| 20260902004702 | 0 | 161 | 2.6 | 5.2 | 0.00 | 0.25 | 0.00 | 1020.3 | |
| 20260902004602 | 0 | 151 | 2.6 | 5.2 | 0.00 | 0.25 | 0.00 | 1020.5 | |
| 20260902004449 | 0 | 151 | 2.6 | 5.2 | 0.00 | 0.25 | 0.00 | 1020.5 | |
| 20260902004347 | 0 | 149 | 3.5 | 5.2 | 0.00 | 0.25 | 0.00 | 1020.4 | |
| 20260902004242 | 0 | 149 | 2.6 | 5.2 | 0.00 | 0.25 | 0.00 | 1020.4 | |
| 20260902004143 | 0 | 183 | 2.6 | 5.2 | 0.00 | 0.25 | 0.00 | 1020.5 | |
| 20260902004042 | 0 | 183 | 2.6 | 5.2 | 0.00 | 0.25 | 0.00 | 1020.5 | |
| 20260902003944 | 0 | 183 | 2.6 | 5.2 | 0.00 | 0.25 | 0.00 | 1020.5 | |
| 20260902003841 | 0 | 185 | 2.6 | 5.2 | 0.00 | 0.25 | 0.00 | 1020.4 | |
| 20260902003738 | 0 | 185 | 1.7 | 5.2 | 0.00 | 0.25 | 0.00 | 1020.4 | |
| 20260902003638 | 0 | 185 | 3.5 | 5.2 | 0.00 | 0.25 | 0.00 | 1020.4 | |
| 20260902003539 | 0 | 183 | 2.6 | 5.2 | 0.00 | 0.25 | 0.00 | 1020.4 | |
| 20260902003434 | 0 | 188 | 1.7 | 5.2 | 0.00 | 0.25 | 0.00 | 1020.4 | |
| 20260902003331 | 0 | 188 | 1.7 | 5.2 | 0.00 | 0.25 | 0.00 | 1020.4 | |
| 20260902003226 | 0 | 188 | 2.6 | 5.2 | 0.00 | 0.25 | 0.00 | 1020.4 | |
| 20260902003122 | 0 | 188 | 2.6 | 5.2 | 0.00 | 0.25 | 0.00 | 1020.4 | |
| 20260902003020 | 0 | 189 | 3.5 | 5.2 | 0.00 | 0.25 | 0.00 | 1020.5 | |
| 20260902002920 | 0 | 190 | 3.5 | 4.3 | 0.00 | 0.25 | 0.00 | 1020.4 | |
| 20260902002819 | 0 | 200 | 2.6 | 4.3 | 0.00 | 0.25 | 0.00 | 1020.5 | |
| 20260902002709 | 0 | 189 | 1.7 | 4.3 | 0.00 | 0.25 | 0.00 | 1020.4 | |
| 20260902002605 | 0 | 188 | 1.7 | 4.3 | 0.00 | 0.25 | 0.00 | 1020.5 | |
| 20260902002505 | 0 | 188 | 1.7 | 4.3 | 0.00 | 0.25 | 0.00 | 1020.5 | |
| 20260902002406 | 0 | 188 | 1.7 | 4.3 | 0.00 | 0.25 | 0.00 | 1020.4 | |
| 20260902002306 | 0 | 188 | 2.6 | 4.3 | 0.00 | 0.25 | 0.00 | 1020.4 | |
| 20260902002205 | 0 | 188 | 3.5 | 5.2 | 0.00 | 0.25 | 0.00 | 1020.4 | |
| 20260902002106 | 0 | 175 | 2.6 | 5.2 | 0.00 | 0.25 | 0.00 | 1020.4 | |
| 20260902002004 | 0 | 175 | 2.6 | 5.2 | 0.00 | 0.25 | 0.00 | 1020.4 | |
| 20260902001903 | 0 | 175 | 2.6 | 5.2 | 0.00 | 0.25 | 0.00 | 1020.4 | |
| 20260902001803 | 0 | 173 | 1.7 | 5.2 | 0.00 | 0.25 | 0.00 | 1020.4 | |
| 20260902001702 | 0 | 173 | 1.7 | 5.2 | 0.00 | 0.25 | 0.00 | 1020.4 | |
| 20260902001603 | 0 | 173 | 2.6 | 5.2 | 0.00 | 0.25 | 0.00 | 1020.5 | |
| 20260902001503 | 0 | 173 | 2.6 | 5.2 | 0.00 | 0.25 | 0.00 | 1020.5 | |
| 20260902001402 | 0 | 172 | 2.6 | 5.2 | 0.00 | 0.25 | 0.00 | 1020.5 | |
| 20260902001304 | 0 | 172 | 3.5 | 5.2 | 0.00 | 0.25 | 0.00 | 1020.4 | |
| 20260902001203 | 0 | 172 | 2.6 | 5.2 | 0.00 | 0.25 | 0.00 | 1020.5 | |
| 20260902001102 | 0 | 173 | 1.7 | 4.3 | 0.00 | 0.25 | 0.00 | 1020.5 | |
| 20260902001004 | 0 | 172 | 2.6 | 4.3 | 0.00 | 0.25 | 0.00 | 1020.5 | |
| 20260902000905 | 0 | 171 | 2.6 | 4.3 | 0.00 | 0.25 | 0.00 | 1020.4 | |
| 20260902000802 | 0 | 178 | 2.6 | 4.3 | 0.00 | 0.25 | 0.00 | 1020.4 | |
| 20260902000703 | 0 | 178 | 2.6 | 4.3 | 0.00 | 0.25 | 0.00 | 1020.5 | |
| 20260902000602 | 0 | 178 | 1.7 | 4.3 | 0.00 | 0.25 | 0.00 | 1020.4 | |
| 20260902000502 | 0 | 178 | 2.6 | 4.3 | 0.00 | 0.25 | 0.00 | 1020.4 | |
| 20260902000406 | 0 | 178 | 2.6 | 4.3 | 0.00 | 0.25 | 0.00 | 1020.5 | |
| 20260902000304 | 0 | 175 | 1.7 | 4.3 | 0.00 | 0.25 | 0.00 | 1020.5 | |
| 20260902000204 | 0 | 175 | 1.7 | 4.3 | 0.00 | 0.25 | 0.00 | 1020.5 | |
| 20260902000001 | 0 | 175 | 2.6 | 5.2 | 0.00 | 0.25 | 0.00 | 1020.4 | |
| 20260901235902 | 0 | 175 | 2.6 | 5.2 | 0.00 | 0.25 | 0.00 | 1020.4 | |
| 20260901235801 | 0 | 175 | 2.6 | 5.2 | 0.00 | 0.25 | 0.00 | 1020.4 | |
| 20260901235703 | 0 | 175 | 2.6 | 5.2 | 0.00 | 0.25 | 0.00 | 1020.4 | |
| 20260901235603 | 0 | 175 | 3.5 | 5.2 | 0.00 | 0.25 | 0.00 | 1020.4 | |
| 20260901235503 | 0 | 178 | 3.5 | 5.2 | 0.00 | 0.25 | 0.00 | 1020.5 | |
| 20260901235401 | 0 | 178 | 2.6 | 5.2 | 0.00 | 0.25 | 0.00 | 1020.5 | |
| 20260901235306 | 0 | 178 | 2.6 | 5.2 | 0.00 | 0.25 | 0.00 | 1020.6 | |
| 20260901235158 | 0 | 178 | 2.6 | 5.2 | 0.00 | 0.25 | 0.00 | 1020.6 | |
| 20260901235058 | 0 | 176 | 3.5 | 5.2 | 0.00 | 0.25 | 0.00 | 1020.6 | |
| 20260901234957 | 0 | 183 | 2.6 | 4.3 | 0.00 | 0.25 | 0.00 | 1020.6 | |
| 20260901234854 | 0 | 185 | 1.7 | 4.3 | 0.00 | 0.25 | 0.00 | 1020.6 | |
| 20260901234748 | 0 | 183 | 2.6 | 4.3 | 0.00 | 0.25 | 0.00 | 1020.6 | |
| 20260901234649 | 0 | 183 | 2.6 | 4.3 | 0.00 | 0.25 | 0.00 | 1020.6 | |
| 20260901234547 | 0 | 185 | 1.7 | 3.5 | 0.00 | 0.25 | 0.00 | 1020.6 | |
| 20260901234442 | 0 | 185 | 1.7 | 3.5 | 0.00 | 0.25 | 0.00 | 1020.5 | |
| 20260901234342 | 0 | 185 | 1.7 | 3.5 | 0.00 | 0.25 | 0.00 | 1020.5 | |
| 20260901234242 | 0 | 185 | 1.7 | 3.5 | 0.00 | 0.25 | 0.00 | 1020.6 | |
| 20260901234138 | 0 | 185 | 2.6 | 5.2 | 0.00 | 0.25 | 0.00 | 1020.5 | |
| 20260901234040 | 0 | 185 | 2.6 | 5.2 | 0.00 | 0.25 | 0.00 | 1020.6 | |
| 20260901233934 | 0 | 186 | 2.6 | 5.2 | 0.00 | 0.25 | 0.00 | 1020.6 | |
| 20260901233834 | 0 | 176 | 2.6 | 5.2 | 0.00 | 0.25 | 0.00 | 1020.5 | |
| 20260901233731 | 0 | 176 | 2.6 | 5.2 | 0.00 | 0.25 | 0.00 | 1020.5 | |
| 20260901233629 | 0 | 173 | 2.6 | 5.2 | 0.00 | 0.25 | 0.00 | 1020.5 | |
| 20260901233529 | 0 | 173 | 2.6 | 5.2 | 0.00 | 0.25 | 0.00 | 1020.5 | |
| 20260901233429 | 0 | 173 | 2.6 | 5.2 | 0.00 | 0.25 | 0.00 | 1020.5 | |
| 20260901233329 | 0 | 173 | 2.6 | 5.2 | 0.00 | 0.25 | 0.00 | 1020.5 | |
| 20260901233229 | 0 | 171 | 2.6 | 5.2 | 0.00 | 0.25 | 0.00 | 1020.5 | |
| 20260901233128 | 0 | 161 | 2.6 | 5.2 | 0.00 | 0.25 | 0.00 | 1020.4 | |
| 20260901233031 | 0 | 161 | 2.6 | 5.2 | 0.00 | 0.25 | 0.00 | 1020.4 | |
| 20260901232925 | 0 | 169 | 1.7 | 5.2 | 0.00 | 0.25 | 0.00 | 1020.5 | |
| 20260901232822 | 0 | 169 | 2.6 | 5.2 | 0.00 | 0.25 | 0.00 | 1020.6 | |
| 20260901232716 | 0 | 169 | 2.6 | 5.2 | 0.00 | 0.25 | 0.00 | 1020.6 | |
| 20260901232614 | 0 | 168 | 2.6 | 5.2 | 0.00 | 0.25 | 0.00 | 1020.6 | |
| 20260901232511 | 0 | 169 | 2.6 | 5.2 | 0.00 | 0.25 | 0.00 | 1020.7 | |
| 20260901232413 | 0 | 166 | 2.6 | 5.2 | 0.00 | 0.25 | 0.00 | 1020.7 | |
| 20260901232307 | 0 | 169 | 2.6 | 5.2 | 0.00 | 0.25 | 0.00 | 1020.7 | |
| 20260901232205 | 0 | 169 | 2.6 | 5.2 | 0.00 | 0.25 | 0.00 | 1020.7 | |
| 20260901232106 | 0 | 169 | 2.6 | 5.2 | 0.00 | 0.25 | 0.00 | 1020.7 | |
| 20260901232006 | 0 | 168 | 2.6 | 5.2 | 0.00 | 0.25 | 0.00 | 1020.6 | |
| 20260901231906 | 0 | 168 | 2.6 | 5.2 | 0.00 | 0.25 | 0.00 | 1020.7 | |
| 20260901231806 | 0 | 162 | 2.6 | 4.3 | 0.00 | 0.25 | 0.00 | 1020.7 | |
| 20260901231705 | 0 | 162 | 2.6 | 4.3 | 0.00 | 0.25 | 0.00 | 1020.7 | |
| 20260901231603 | 0 | 131 | 2.6 | 4.3 | 0.00 | 0.25 | 0.00 | 1020.7 | |
| 20260901231503 | 0 | 186 | 1.7 | 4.3 | 0.00 | 0.25 | 0.00 | 1020.8 | |
| 20260901231402 | 0 | 186 | 1.7 | 4.3 | 0.00 | 0.25 | 0.00 | 1020.7 | |
| 20260901231302 | 0 | 186 | 2.6 | 4.3 | 0.00 | 0.25 | 0.00 | 1020.7 | |
| 20260901231202 | 0 | 185 | 2.6 | 4.3 | 0.00 | 0.25 | 0.00 | 1020.7 | |
| 20260901231102 | 0 | 186 | 2.6 | 4.3 | 0.00 | 0.25 | 0.00 | 1020.7 | |
| 20260901231001 | 0 | 186 | 1.7 | 4.3 | 0.00 | 0.25 | 0.00 | 1020.7 | |
| 20260901230901 | 0 | 186 | 2.6 | 4.3 | 0.00 | 0.25 | 0.00 | 1020.7 | |
| 20260901230802 | 0 | 186 | 1.7 | 4.3 | 0.00 | 0.25 | 0.00 | 1020.8 | |
| 20260901230703 | 0 | 188 | 1.7 | 4.3 | 0.00 | 0.25 | 0.00 | 1020.7 | |
| 20260901230601 | 0 | 188 | 2.6 | 4.3 | 0.00 | 0.25 | 0.00 | 1020.7 | |
| 20260901230503 | 0 | 189 | 1.7 | 4.3 | 0.00 | 0.25 | 0.00 | 1020.7 | |
| 20260901230402 | 0 | 189 | 1.7 | 4.3 | 0.00 | 0.25 | 0.00 | 1020.7 | |
| 20260901230301 | 0 | 190 | 1.7 | 4.3 | 0.00 | 0.25 | 0.00 | 1020.7 | |
| 20260901230202 | 0 | 190 | 1.7 | 4.3 | 0.00 | 0.25 | 0.00 | 1020.8 | |
| 20260901230004 | 0 | 189 | 1.7 | 4.3 | 0.00 | 0.25 | 0.00 | 1020.8 | |
| 20260901225903 | 0 | 189 | 1.7 | 4.3 | 0.00 | 0.25 | 0.00 | 1020.8 | |
| 20260901225801 | 0 | 189 | 1.7 | 4.3 | 0.00 | 0.25 | 0.00 | 1020.8 | |
| 20260901225702 | 0 | 188 | 1.7 | 4.3 | 0.00 | 0.25 | 0.00 | 1020.8 | |
| 20260901225602 | 0 | 186 | 1.7 | 4.3 | 0.00 | 0.25 | 0.00 | 1020.8 | |
| 20260901225501 | 0 | 186 | 1.7 | 4.3 | 0.00 | 0.25 | 0.00 | 1020.7 | |
| 20260901225402 | 0 | 186 | 1.7 | 4.3 | 0.00 | 0.25 | 0.00 | 1020.8 | |
| 20260901225306 | 0 | 186 | 1.7 | 4.3 | 0.00 | 0.25 | 0.00 | 1020.8 | |
| 20260901225203 | 0 | 186 | 1.7 | 4.3 | 0.00 | 0.25 | 0.00 | 1020.7 | |
| 20260901225102 | 0 | 186 | 1.7 | 4.3 | 0.00 | 0.25 | 0.00 | 1020.7 | |
| 20260901225005 | 0 | 188 | 1.7 | 4.3 | 0.00 | 0.25 | 0.00 | 1020.8 | |
| 20260901224901 | 0 | 188 | 2.6 | 4.3 | 0.00 | 0.25 | 0.00 | 1020.8 | |
| 20260901224802 | 0 | 188 | 3.5 | 4.3 | 0.00 | 0.25 | 0.00 | 1020.7 | |
| 20260901224703 | 0 | 188 | 3.5 | 4.3 | 0.00 | 0.25 | 0.00 | 1020.7 | |
| 20260901224603 | 0 | 192 | 1.7 | 3.5 | 0.00 | 0.25 | 0.00 | 1020.8 | |
| 20260901224501 | 0 | 192 | 1.7 | 4.3 | 0.00 | 0.25 | 0.00 | 1020.8 | |
| 20260901224401 | 0 | 190 | 1.7 | 4.3 | 0.00 | 0.25 | 0.00 | 1020.7 | |
| 20260901224302 | 0 | 190 | 1.7 | 4.3 | 0.00 | 0.25 | 0.00 | 1020.7 | |
| 20260901224202 | 0 | 192 | 1.7 | 4.3 | 0.00 | 0.25 | 0.00 | 1020.8 | |
| 20260901224101 | 0 | 190 | 1.7 | 4.3 | 0.00 | 0.25 | 0.00 | 1020.7 | |
| 20260901224004 | 0 | 190 | 1.7 | 4.3 | 0.00 | 0.25 | 0.00 | 1020.7 | |
| 20260901223903 | 0 | 190 | 2.6 | 4.3 | 0.00 | 0.25 | 0.00 | 1020.8 | |
| 20260901223801 | 0 | 190 | 2.6 | 4.3 | 0.00 | 0.25 | 0.00 | 1020.9 | |
| 20260901223701 | 0 | 195 | 2.6 | 4.3 | 0.00 | 0.25 | 0.00 | 1020.9 | |
| 20260901223602 | 0 | 195 | 2.6 | 4.3 | 0.00 | 0.25 | 0.00 | 1020.9 | |
| 20260901223502 | 0 | 196 | 1.7 | 4.3 | 0.00 | 0.25 | 0.00 | 1020.9 | |
| 20260901223401 | 0 | 196 | 1.7 | 4.3 | 0.00 | 0.25 | 0.00 | 1021.0 | |
| 20260901223302 | 0 | 196 | 1.7 | 4.3 | 0.00 | 0.25 | 0.00 | 1020.9 | |
| 20260901223201 | 0 | 197 | 1.7 | 4.3 | 0.00 | 0.25 | 0.00 | 1020.9 | |
| 20260901223101 | 0 | 197 | 2.6 | 5.2 | 0.00 | 0.25 | 0.00 | 1021.0 | |
| 20260901223001 | 0 | 197 | 2.6 | 5.2 | 0.00 | 0.25 | 0.00 | 1020.9 | |
| 20260901222902 | 0 | 197 | 1.7 | 5.2 | 0.00 | 0.25 | 0.00 | 1021.0 | |
| 20260901222802 | 0 | 197 | 1.7 | 5.2 | 0.00 | 0.25 | 0.00 | 1021.0 | |
| 20260901222705 | 0 | 197 | 2.6 | 5.2 | 0.00 | 0.25 | 0.00 | 1020.9 | |
| 20260901222602 | 0 | 197 | 2.6 | 5.2 | 0.00 | 0.25 | 0.00 | 1021.0 | |
| 20260901222501 | 0 | 197 | 1.7 | 5.2 | 0.00 | 0.25 | 0.00 | 1021.0 | |
| 20260901222401 | 0 | 197 | 1.7 | 5.2 | 0.00 | 0.25 | 0.00 | 1020.9 | |
| 20260901222301 | 0 | 197 | 2.6 | 5.2 | 0.00 | 0.25 | 0.00 | 1021.0 | |
| 20260901222202 | 0 | 197 | 2.6 | 5.2 | 0.00 | 0.25 | 0.00 | 1020.9 | |
| 20260901222102 | 0 | 199 | 2.6 | 4.3 | 0.00 | 0.25 | 0.00 | 1020.9 | |
| 20260901222004 | 0 | 200 | 1.7 | 4.3 | 0.00 | 0.25 | 0.00 | 1020.9 | |
| 20260901221904 | 0 | 202 | 2.6 | 4.3 | 0.00 | 0.25 | 0.00 | 1020.9 | |
| 20260901221802 | 0 | 200 | 2.6 | 4.3 | 0.00 | 0.25 | 0.00 | 1020.9 | |
| 20260901221701 | 0 | 202 | 2.6 | 4.3 | 0.00 | 0.25 | 0.00 | 1020.9 | |
| 20260901221602 | 0 | 203 | 2.6 | 4.3 | 0.00 | 0.25 | 0.00 | 1020.9 | |
| 20260901221501 | 0 | 219 | 1.7 | 4.3 | 0.00 | 0.25 | 0.00 | 1020.9 | |
| 20260901221402 | 0 | 219 | 1.7 | 4.3 | 0.00 | 0.25 | 0.00 | 1020.9 | |
| 20260901221301 | 0 | 220 | 1.7 | 4.3 | 0.00 | 0.25 | 0.00 | 1020.9 | |
| 20260901221205 | 0 | 220 | 1.7 | 4.3 | 0.00 | 0.25 | 0.00 | 1020.9 | |
| 20260901221104 | 0 | 224 | 1.7 | 2.6 | 0.00 | 0.25 | 0.00 | 1020.9 | |
| 20260901221001 | 0 | 224 | 1.7 | 2.6 | 0.00 | 0.25 | 0.00 | 1020.9 | |
| 20260901220901 | 0 | 226 | 1.7 | 2.6 | 0.00 | 0.25 | 0.00 | 1021.0 | |
| 20260901220802 | 0 | 226 | 1.7 | 2.6 | 0.00 | 0.25 | 0.00 | 1021.0 | |
| 20260901220701 | 0 | 226 | 1.7 | 2.6 | 0.00 | 0.25 | 0.00 | 1020.9 | |
| 20260901220602 | 0 | 226 | 1.7 | 2.6 | 0.00 | 0.25 | 0.00 | 1020.9 | |
| 20260901220505 | 0 | 226 | 0.9 | 2.6 | 0.00 | 0.25 | 0.00 | 1021.0 | |
| 20260901220403 | 0 | 226 | 0.9 | 3.5 | 0.00 | 0.25 | 0.00 | 1020.9 | |
| 20260901220304 | 0 | 226 | 0.9 | 3.5 | 0.00 | 0.25 | 0.00 | 1021.0 | |
| 20260901220201 | 0 | 226 | 0.9 | 3.5 | 0.00 | 0.25 | 0.00 | 1020.9 | |
| 20260901220101 | 0 | 226 | 0.9 | 3.5 | 0.00 | 0.25 | 0.00 | 1021.0 | |
| 20260901220001 | 0 | 226 | 0.9 | 3.5 | 0.00 | 0.25 | 0.25 | 1021.0 | |
| 20260901215901 | 0 | 226 | 0.9 | 3.5 | 0.00 | 0.25 | 0.25 | 1020.9 | |
| 20260901215759 | 0 | 226 | 0.9 | 3.5 | 0.00 | 0.25 | 0.25 | 1020.9 | |
| 20260901215659 | 0 | 226 | 1.7 | 3.5 | 0.00 | 0.25 | 0.25 | 1020.9 | |
| 20260901215559 | 0 | 226 | 1.7 | 3.5 | 0.00 | 0.25 | 0.25 | 1020.9 | |
| 20260901215453 | 0 | 226 | 1.7 | 3.5 | 0.00 | 0.25 | 0.25 | 1021.0 | |
| 20260901215353 | 0 | 226 | 1.7 | 3.5 | 0.00 | 0.25 | 0.25 | 1021.0 | |
| 20260901215255 | 0 | 226 | 1.7 | 3.5 | 0.00 | 0.25 | 0.25 | 1021.0 | |
| 20260901215152 | 0 | 226 | 1.7 | 3.5 | 0.00 | 0.25 | 0.25 | 1020.9 | |
| 20260901215052 | 0 | 226 | 1.7 | 3.5 | 0.00 | 0.25 | 0.25 | 1021.0 | |
| 20260901214951 | 0 | 226 | 1.7 | 3.5 | 0.00 | 0.25 | 0.25 | 1020.9 | |
| 20260901214847 | 0 | 226 | 1.7 | 3.5 | 0.00 | 0.25 | 0.25 | 1020.9 | |
| 20260901214745 | 0 | 226 | 1.7 | 3.5 | 0.00 | 0.25 | 0.25 | 1020.9 | |
| 20260901214645 | 0 | 226 | 0.9 | 3.5 | 0.00 | 0.25 | 0.25 | 1020.9 | |
| 20260901214545 | 0 | 227 | 1.7 | 3.5 | 0.00 | 0.25 | 0.25 | 1020.9 | |
| 20260901214442 | 0 | 227 | 1.7 | 3.5 | 0.00 | 0.25 | 0.25 | 1020.9 | |
| 20260901214341 | 0 | 227 | 1.7 | 3.5 | 0.00 | 0.25 | 0.25 | 1020.9 | |
| 20260901214238 | 0 | 227 | 1.7 | 3.5 | 0.00 | 0.25 | 0.25 | 1020.9 | |
| 20260901214140 | 0 | 227 | 1.7 | 3.5 | 0.00 | 0.25 | 0.25 | 1021.0 | |
| 20260901214039 | 0 | 227 | 1.7 | 3.5 | 0.00 | 0.25 | 0.25 | 1020.9 | |
| 20260901213937 | 0 | 227 | 1.7 | 3.5 | 0.00 | 0.25 | 0.25 | 1020.9 | |
| 20260901213837 | 0 | 227 | 1.7 | 3.5 | 0.00 | 0.25 | 0.25 | 1020.9 | |
| 20260901213733 | 0 | 231 | 1.7 | 2.6 | 0.00 | 0.25 | 0.25 | 1020.9 | |
| 20260901213630 | 0 | 231 | 1.7 | 2.6 | 0.00 | 0.25 | 0.25 | 1020.9 | |
| 20260901213529 | 0 | 231 | 1.7 | 3.5 | 0.00 | 0.25 | 0.25 | 1020.8 | |
| 20260901213429 | 0 | 231 | 1.7 | 3.5 | 0.00 | 0.25 | 0.25 | 1020.8 | |
| 20260901213329 | 0 | 231 | 0.9 | 3.5 | 0.00 | 0.25 | 0.25 | 1020.8 | |
| 20260901213229 | 0 | 231 | 1.7 | 3.5 | 0.00 | 0.25 | 0.25 | 1020.8 | |
| 20260901213121 | 0 | 231 | 1.7 | 3.5 | 0.00 | 0.25 | 0.25 | 1020.8 | |
| 20260901213018 | 0 | 231 | 1.7 | 3.5 | 0.00 | 0.25 | 0.25 | 1020.9 | |
| 20260901212920 | 0 | 233 | 1.7 | 3.5 | 0.00 | 0.25 | 0.25 | 1020.9 | |
| 20260901212814 | 0 | 233 | 1.7 | 3.5 | 0.00 | 0.25 | 0.25 | 1020.9 | |
| 20260901212709 | 0 | 233 | 1.7 | 3.5 | 0.00 | 0.25 | 0.25 | 1020.8 | |
| 20260901212604 | 0 | 233 | 1.7 | 3.5 | 0.00 | 0.25 | 0.25 | 1020.9 | |
| 20260901212505 | 0 | 233 | 1.7 | 3.5 | 0.00 | 0.25 | 0.25 | 1020.9 | |
| 20260901212404 | 0 | 233 | 1.7 | 3.5 | 0.00 | 0.25 | 0.25 | 1020.9 | |
| 20260901212306 | 0 | 233 | 1.7 | 3.5 | 0.00 | 0.25 | 0.25 | 1020.9 | |
| 20260901212202 | 0 | 234 | 1.7 | 3.5 | 0.00 | 0.25 | 0.25 | 1020.9 | |
| 20260901212102 | 0 | 234 | 1.7 | 3.5 | 0.00 | 0.25 | 0.25 | 1020.8 | |
| 20260901212004 | 0 | 234 | 1.7 | 3.5 | 0.00 | 0.25 | 0.25 | 1020.8 | |
| 20260901211903 | 0 | 234 | 1.7 | 3.5 | 0.00 | 0.25 | 0.25 | 1020.8 | |
| 20260901211803 | 0 | 234 | 1.7 | 3.5 | 0.00 | 0.25 | 0.25 | 1020.9 | |
| 20260901211703 | 0 | 234 | 1.7 | 3.5 | 0.00 | 0.25 | 0.25 | 1020.9 | |
| 20260901211604 | 0 | 234 | 1.7 | 3.5 | 0.00 | 0.25 | 0.25 | 1021.0 | |
| 20260901211503 | 0 | 234 | 1.7 | 3.5 | 0.00 | 0.25 | 0.25 | 1021.0 | |
| 20260901211402 | 0 | 234 | 1.7 | 3.5 | 0.00 | 0.25 | 0.25 | 1020.9 | |
| 20260901211302 | 0 | 234 | 0.9 | 2.6 | 0.00 | 0.25 | 0.25 | 1020.9 | |
| 20260901211202 | 0 | 234 | 0.9 | 2.6 | 0.00 | 0.25 | 0.25 | 1020.9 | |
| 20260901211102 | 0 | 234 | 1.7 | 2.6 | 0.00 | 0.25 | 0.25 | 1020.9 | |
| 20260901211002 | 0 | 234 | 0.9 | 4.3 | 0.00 | 0.25 | 0.25 | 1020.8 | |
| 20260901210905 | 0 | 234 | 0.9 | 4.3 | 0.00 | 0.25 | 0.25 | 1020.8 | |
| 20260901210802 | 0 | 234 | 1.7 | 4.3 | 0.00 | 0.25 | 0.25 | 1020.8 | |
| 20260901210702 | 0 | 234 | 1.7 | 4.3 | 0.00 | 0.25 | 0.25 | 1020.9 | |
| 20260901210602 | 0 | 234 | 1.7 | 4.3 | 0.00 | 0.25 | 0.25 | 1020.9 | |
| 20260901210502 | 0 | 234 | 1.7 | 4.3 | 0.00 | 0.25 | 0.25 | 1020.9 | |
| 20260901210404 | 0 | 234 | 1.7 | 4.3 | 0.00 | 0.25 | 0.25 | 1020.9 | |
| 20260901210306 | 0 | 234 | 1.7 | 4.3 | 0.00 | 0.25 | 0.25 | 1020.9 | |
| 20260901210202 | 0 | 234 | 1.7 | 4.3 | 0.00 | 0.25 | 0.25 | 1020.9 | |
| 20260901210003 | 0 | 235 | 1.7 | 3.5 | 0.00 | 0.25 | 0.25 | 1020.8 | |
| 20260901205903 | 0 | 235 | 2.6 | 3.5 | 0.00 | 0.25 | 0.25 | 1020.9 | |
| 20260901205804 | 0 | 237 | 1.7 | 3.5 | 0.00 | 0.25 | 0.25 | 1020.9 | |
| 20260901205702 | 0 | 237 | 1.7 | 3.5 | 0.00 | 0.25 | 0.25 | 1020.9 | |
| 20260901205603 | 0 | 237 | 0.9 | 3.5 | 0.00 | 0.25 | 0.25 | 1020.9 | |
| 20260901205504 | 0 | 237 | 1.7 | 3.5 | 0.00 | 0.25 | 0.25 | 1020.9 | |
| 20260901205402 | 0 | 237 | 1.7 | 3.5 | 0.00 | 0.25 | 0.25 | 1020.9 | |
| 20260901205306 | 0 | 237 | 1.7 | 3.5 | 0.00 | 0.25 | 0.25 | 1020.9 | |
| 20260901205204 | 0 | 237 | 1.7 | 3.5 | 0.00 | 0.25 | 0.25 | 1021.0 | |
| 20260901205104 | 0 | 237 | 1.7 | 3.5 | 0.00 | 0.25 | 0.25 | 1020.9 | |
| 20260901205004 | 0 | 237 | 1.7 | 3.5 | 0.00 | 0.25 | 0.25 | 1021.0 | |
| 20260901204903 | 0 | 237 | 1.7 | 3.5 | 0.00 | 0.25 | 0.25 | 1021.0 | |
| 20260901204803 | 0 | 237 | 1.7 | 3.5 | 0.00 | 0.25 | 0.25 | 1020.9 | |
| 20260901204703 | 0 | 237 | 1.7 | 2.6 | 0.00 | 0.25 | 0.25 | 1021.0 | |
| 20260901204602 | 0 | 237 | 1.7 | 2.6 | 0.00 | 0.25 | 0.25 | 1021.0 | |
| 20260901204505 | 0 | 237 | 0.9 | 2.6 | 0.00 | 0.25 | 0.25 | 1021.0 | |
| 20260901204403 | 0 | 237 | 0.9 | 1.7 | 0.00 | 0.25 | 0.25 | 1021.1 | |
| 20260901204305 | 0 | 237 | 0.9 | 2.6 | 0.00 | 0.25 | 0.25 | 1021.1 | |
| 20260901204203 | 0 | 237 | 0.0 | 2.6 | 0.00 | 0.25 | 0.25 | 1021.1 | |
| 20260901204103 | 0 | 237 | 0.0 | 2.6 | 0.00 | 0.25 | 0.25 | 1021.1 | |
| 20260901204004 | 0 | 237 | 0.9 | 2.6 | 0.00 | 0.25 | 0.25 | 1021.1 | |
| 20260901203903 | 0 | 237 | 0.9 | 2.6 | 0.00 | 0.25 | 0.25 | 1021.1 | |
| 20260901203804 | 0 | 237 | 0.9 | 2.6 | 0.00 | 0.25 | 0.25 | 1021.1 | |
| 20260901203704 | 0 | 237 | 0.9 | 2.6 | 0.00 | 0.25 | 0.25 | 1021.2 | |
| 20260901203603 | 0 | 237 | 0.0 | 3.5 | 0.00 | 0.25 | 0.25 | 1021.1 | |
| 20260901203503 | 0 | 237 | 0.9 | 3.5 | 0.00 | 0.25 | 0.25 | 1021.1 | |
| 20260901203405 | 0 | 237 | 0.9 | 3.5 | 0.00 | 0.25 | 0.25 | 1021.2 | |
| 20260901203306 | 0 | 237 | 0.0 | 3.5 | 0.00 | 0.25 | 0.25 | 1021.2 | |
| 20260901203204 | 0 | 237 | 0.0 | 3.5 | 0.00 | 0.25 | 0.25 | 1021.2 | |
| 20260901203102 | 0 | 237 | 0.9 | 3.5 | 0.00 | 0.25 | 0.25 | 1021.2 | |
| 20260901203002 | 0 | 237 | 0.9 | 3.5 | 0.00 | 0.25 | 0.25 | 1021.2 | |
| 20260901202903 | 61 | 237 | 1.7 | 3.5 | 0.00 | 0.25 | 0.25 | 72 | 1021.2 |
| 20260901202802 | 61 | 237 | 1.7 | 3.5 | 0.00 | 0.25 | 0.25 | 72 | 1021.2 |
| 20260901202702 | 61 | 237 | 0.9 | 3.5 | 0.00 | 0.25 | 0.25 | 72 | 1021.2 |
| 20260901202602 | 61 | 237 | 0.9 | 2.6 | 0.00 | 0.25 | 0.25 | 72 | 1021.3 |
| 20260901202503 | 61 | 237 | 0.9 | 2.6 | 0.00 | 0.25 | 0.25 | 72 | 1021.3 |
| 20260901202404 | 61 | 237 | 0.9 | 2.6 | 0.00 | 0.25 | 0.25 | 72 | 1021.3 |
| 20260901202306 | 61 | 237 | 0.9 | 2.6 | 0.00 | 0.25 | 0.25 | 72 | 1021.3 |
| 20260901202204 | 61 | 237 | 0.9 | 2.6 | 0.00 | 0.25 | 0.25 | 72 | 1021.4 |
| 20260901202106 | 61 | 237 | 0.9 | 2.6 | 0.00 | 0.25 | 0.25 | 72 | 1021.3 |
| 20260901202005 | 61 | 237 | 0.9 | 2.6 | 0.00 | 0.25 | 0.25 | 72 | 1021.4 |
| 20260901201903 | 0 | 237 | 0.9 | 2.6 | 0.00 | 0.25 | 0.25 | 1021.4 | |
| 20260901201801 | 0 | 238 | 0.9 | 2.6 | 0.00 | 0.25 | 0.25 | 1021.3 | |
| 20260901201703 | 0 | 238 | 0.9 | 2.6 | 0.00 | 0.25 | 0.25 | 1021.3 | |
| 20260901201602 | 0 | 238 | 0.9 | 2.6 | 0.00 | 0.25 | 0.25 | 1021.3 | |
| 20260901201507 | 0 | 238 | 0.9 | 2.6 | 0.00 | 0.25 | 0.25 | 1021.3 | |
| 20260901201402 | 0 | 238 | 0.9 | 2.6 | 0.00 | 0.25 | 0.25 | 1021.3 | |
| 20260901201302 | 0 | 238 | 0.0 | 2.6 | 0.00 | 0.25 | 0.25 | 1021.3 | |
| 20260901201202 | 0 | 238 | 0.0 | 2.6 | 0.00 | 0.25 | 0.25 | 1021.3 | |
| 20260901201102 | 0 | 238 | 0.9 | 2.6 | 0.00 | 0.25 | 0.25 | 1021.3 | |
| 20260901201002 | 0 | 238 | 0.9 | 2.6 | 0.00 | 0.25 | 0.25 | 1021.3 | |
| 20260901200903 | 0 | 238 | 0.9 | 2.6 | 0.00 | 0.25 | 0.25 | 1021.3 | |
| 20260901200802 | 0 | 238 | 0.9 | 2.6 | 0.00 | 0.25 | 0.25 | 1021.3 | |
| 20260901200702 | 0 | 238 | 0.9 | 2.6 | 0.00 | 0.25 | 0.25 | 1021.3 | |
| 20260901200604 | 0 | 238 | 0.9 | 2.6 | 0.00 | 0.25 | 0.25 | 1021.4 | |
| 20260901200504 | 0 | 238 | 0.9 | 2.6 | 0.00 | 0.25 | 0.25 | 1021.3 | |
| 20260901200405 | 0 | 238 | 0.9 | 2.6 | 0.00 | 0.25 | 0.25 | 1021.4 | |
| 20260901200302 | 0 | 238 | 1.7 | 3.5 | 0.00 | 0.25 | 0.25 | 1021.4 | |
| 20260901200202 | 0 | 238 | 1.7 | 3.5 | 0.00 | 0.25 | 0.25 | 1021.4 | |
| 20260901200004 | 0 | 238 | 0.9 | 3.5 | 0.00 | 0.25 | 0.25 | 1021.4 | |
| 20260901195901 | 0 | 238 | 0.9 | 3.5 | 0.00 | 0.25 | 0.25 | 1021.4 | |
| 20260901195801 | 0 | 238 | 0.9 | 4.3 | 0.00 | 0.25 | 0.25 | 1021.3 | |
| 20260901195703 | 0 | 238 | 1.7 | 4.3 | 0.00 | 0.25 | 0.25 | 1021.3 | |
| 20260901195602 | 0 | 238 | 1.7 | 4.3 | 0.00 | 0.25 | 0.25 | 1021.3 | |
| 20260901195502 | 0 | 238 | 1.7 | 4.3 | 0.00 | 0.25 | 0.25 | 1021.4 | |
| 20260901195405 | 0 | 238 | 1.7 | 4.3 | 0.00 | 0.25 | 0.25 | 1021.4 | |
| 20260901195305 | 0 | 238 | 0.9 | 4.3 | 0.00 | 0.25 | 0.25 | 1021.3 | |
| 20260901195203 | 0 | 238 | 0.9 | 4.3 | 0.00 | 0.25 | 0.25 | 1021.4 | |
| 20260901195102 | 0 | 238 | 0.9 | 4.3 | 0.00 | 0.25 | 0.25 | 1021.3 | |
| 20260901195004 | 0 | 238 | 0.9 | 4.3 | 0.00 | 0.25 | 0.25 | 1021.3 | |
| 20260901194902 | 61 | 238 | 0.9 | 4.3 | 0.00 | 0.25 | 0.25 | 72 | 1021.3 |
| 20260901194803 | 61 | 240 | 0.9 | 3.5 | 0.00 | 0.25 | 0.25 | 72 | 1021.4 |
| 20260901194705 | 61 | 240 | 1.7 | 3.5 | 0.00 | 0.25 | 0.25 | 72 | 1021.3 |
| 20260901194602 | 61 | 240 | 1.7 | 3.5 | 0.00 | 0.25 | 0.25 | 72 | 1021.3 |
| 20260901194503 | 61 | 243 | 1.7 | 3.5 | 0.00 | 0.25 | 0.25 | 72 | 1021.3 |
| 20260901194401 | 61 | 243 | 1.7 | 4.3 | 0.00 | 0.25 | 0.25 | 72 | 1021.3 |
| 20260901194303 | 61 | 243 | 1.7 | 4.3 | 0.00 | 0.25 | 0.25 | 72 | 1021.3 |
| 20260901194202 | 61 | 243 | 0.9 | 4.3 | 0.00 | 0.25 | 0.25 | 72 | 1021.3 |
| 20260901194104 | 61 | 243 | 1.7 | 4.3 | 0.00 | 0.25 | 0.25 | 72 | 1021.2 |
| 20260901194002 | 61 | 243 | 1.7 | 4.3 | 0.00 | 0.25 | 0.25 | 72 | 1021.2 |
| 20260901193902 | 0 | 243 | 0.9 | 4.3 | 0.00 | 0.25 | 0.25 | 1021.2 | |
| 20260901193803 | 0 | 243 | 0.9 | 4.3 | 0.00 | 0.25 | 0.25 | 1021.3 | |
| 20260901193702 | 0 | 243 | 1.7 | 4.3 | 0.00 | 0.25 | 0.25 | 1021.1 | |
| 20260901193601 | 0 | 243 | 1.7 | 4.3 | 0.00 | 0.25 | 0.25 | 1021.1 | |
| 20260901193501 | 0 | 243 | 1.7 | 4.3 | 0.00 | 0.25 | 0.25 | 1021.1 | |
| 20260901193404 | 0 | 247 | 1.7 | 3.5 | 0.00 | 0.25 | 0.25 | 1021.1 | |
| 20260901193304 | 0 | 259 | 1.7 | 3.5 | 0.00 | 0.25 | 0.25 | 1021.1 | |
| 20260901193203 | 0 | 259 | 1.7 | 3.5 | 0.00 | 0.25 | 0.25 | 1021.1 | |
| 20260901193104 | 0 | 259 | 0.9 | 3.5 | 0.00 | 0.25 | 0.25 | 1021.1 | |
| 20260901193003 | 0 | 259 | 0.9 | 3.5 | 0.00 | 0.25 | 0.25 | 1021.1 | |
| 20260901192903 | 0 | 259 | 1.7 | 3.5 | 0.00 | 0.25 | 0.25 | 1021.1 | |
| 20260901192802 | 0 | 259 | 1.7 | 3.5 | 0.00 | 0.25 | 0.25 | 1021.1 | |
| 20260901192703 | 0 | 261 | 0.9 | 3.5 | 0.00 | 0.25 | 0.25 | 1021.1 | |
| 20260901192603 | 0 | 262 | 0.9 | 2.6 | 0.00 | 0.25 | 0.25 | 1021.1 | |
| 20260901192504 | 0 | 262 | 0.9 | 2.6 | 0.00 | 0.25 | 0.25 | 1021.1 | |
| 20260901192405 | 0 | 262 | 1.7 | 2.6 | 0.00 | 0.25 | 0.25 | 1021.1 | |
| 20260901192306 | 0 | 262 | 0.9 | 2.6 | 0.00 | 0.25 | 0.25 | 1021.1 | |
| 20260901192203 | 0 | 262 | 0.9 | 2.6 | 0.00 | 0.25 | 0.25 | 1021.1 | |
| 20260901192103 | 0 | 262 | 0.9 | 2.6 | 0.00 | 0.25 | 0.25 | 1021.0 | |
| 20260901192004 | 0 | 262 | 0.9 | 2.6 | 0.00 | 0.25 | 0.25 | 1021.2 | |
| 20260901191903 | 0 | 262 | 0.0 | 2.6 | 0.00 | 0.25 | 0.25 | 1021.1 | |
| 20260901191802 | 0 | 262 | 0.9 | 2.6 | 0.00 | 0.25 | 0.25 | 1021.1 | |
| 20260901191703 | 0 | 262 | 0.9 | 2.6 | 0.00 | 0.25 | 0.25 | 1021.1 | |
| 20260901191602 | 0 | 262 | 0.9 | 2.6 | 0.00 | 0.25 | 0.25 | 1021.1 | |
| 20260901191505 | 0 | 262 | 0.9 | 2.6 | 0.00 | 0.25 | 0.25 | 1021.1 | |
| 20260901191404 | 0 | 262 | 0.9 | 2.6 | 0.00 | 0.25 | 0.25 | 1021.0 | |
| 20260901191304 | 0 | 262 | 0.9 | 2.6 | 0.00 | 0.25 | 0.25 | 1021.1 | |
| 20260901191206 | 0 | 262 | 1.7 | 2.6 | 0.00 | 0.25 | 0.25 | 1021.1 | |
| 20260901191104 | 0 | 262 | 0.9 | 1.7 | 0.00 | 0.25 | 0.25 | 1021.0 | |
| 20260901191003 | 0 | 262 | 0.9 | 1.7 | 0.00 | 0.25 | 0.25 | 1021.0 | |
| 20260901190903 | 0 | 262 | 0.9 | 1.7 | 0.00 | 0.25 | 0.25 | 1021.0 | |
| 20260901190802 | 0 | 262 | 0.9 | 1.7 | 0.00 | 0.25 | 0.25 | 1021.0 | |
| 20260901190702 | 0 | 262 | 0.9 | 1.7 | 0.00 | 0.25 | 0.25 | 1021.0 | |
| 20260901190604 | 0 | 262 | 0.9 | 1.7 | 0.00 | 0.25 | 0.25 | 1021.1 | |
| 20260901190504 | 0 | 262 | 0.9 | 2.6 | 0.00 | 0.25 | 0.25 | 1021.0 | |
| 20260901190403 | 0 | 262 | 0.9 | 2.6 | 0.00 | 0.25 | 0.25 | 1021.0 | |
| 20260901190302 | 0 | 262 | 0.9 | 2.6 | 0.00 | 0.25 | 0.25 | 1021.0 | |
| 20260901190202 | 0 | 262 | 0.9 | 2.6 | 0.00 | 0.25 | 0.25 | 1021.0 | |
| 20260901190004 | 0 | 262 | 0.9 | 2.6 | 0.00 | 0.25 | 0.25 | 1020.9 | |
| 20260901185902 | 0 | 262 | 0.9 | 2.6 | 0.00 | 0.25 | 0.25 | 1020.9 | |
| 20260901185806 | 0 | 262 | 0.9 | 2.6 | 0.00 | 0.25 | 0.25 | 1020.9 | |
| 20260901185703 | 0 | 262 | 1.7 | 2.6 | 0.00 | 0.25 | 0.25 | 1020.9 | |
| 20260901185605 | 0 | 262 | 0.9 | 2.6 | 0.00 | 0.25 | 0.25 | 1020.8 | |
| 20260901185505 | 0 | 262 | 0.9 | 2.6 | 0.00 | 0.25 | 0.25 | 1020.8 | |
| 20260901185403 | 0 | 262 | 1.7 | 2.6 | 0.00 | 0.25 | 0.25 | 1020.8 | |
| 20260901185305 | 0 | 262 | 1.7 | 2.6 | 0.00 | 0.25 | 0.25 | 1020.7 | |
| 20260901185204 | 0 | 262 | 1.7 | 3.5 | 0.00 | 0.25 | 0.25 | 1020.7 | |
| 20260901185101 | 0 | 262 | 1.7 | 3.5 | 0.00 | 0.25 | 0.25 | 1020.7 | |
| 20260901185006 | 0 | 262 | 1.7 | 3.5 | 0.00 | 0.25 | 0.25 | 1020.8 | |
| 20260901184902 | 0 | 262 | 1.7 | 3.5 | 0.00 | 0.25 | 0.25 | 1020.8 | |
| 20260901184802 | 0 | 262 | 1.7 | 3.5 | 0.00 | 0.25 | 0.25 | 1020.7 | |
| 20260901184704 | 0 | 262 | 1.7 | 3.5 | 0.00 | 0.25 | 0.25 | 1020.8 | |
| 20260901184604 | 0 | 264 | 0.9 | 3.5 | 0.00 | 0.25 | 0.25 | 1020.8 | |
| 20260901184504 | 0 | 264 | 0.9 | 3.5 | 0.00 | 0.25 | 0.25 | 1020.8 | |
| 20260901184404 | 0 | 264 | 1.7 | 3.5 | 0.00 | 0.25 | 0.25 | 1020.9 | |
| 20260901184305 | 0 | 264 | 1.7 | 3.5 | 0.00 | 0.25 | 0.25 | 1020.9 | |
| 20260901184202 | 0 | 264 | 0.9 | 3.5 | 0.00 | 0.25 | 0.25 | 1020.9 | |
| 20260901184102 | 0 | 264 | 1.7 | 3.5 | 0.00 | 0.25 | 0.25 | 1020.9 | |
| 20260901184003 | 0 | 264 | 1.7 | 2.6 | 0.00 | 0.25 | 0.25 | 1020.8 | |
| 20260901183902 | 0 | 264 | 1.7 | 2.6 | 0.00 | 0.25 | 0.25 | 1020.8 | |
| 20260901183802 | 0 | 264 | 1.7 | 2.6 | 0.00 | 0.25 | 0.25 | 1020.8 | |
| 20260901183702 | 0 | 264 | 0.9 | 1.7 | 0.00 | 0.25 | 0.25 | 1020.8 | |
| 20260901183602 | 0 | 264 | 0.9 | 1.7 | 0.00 | 0.25 | 0.25 | 1020.8 | |
| 20260901183502 | 0 | 264 | 0.9 | 2.6 | 0.00 | 0.25 | 0.25 | 1020.9 | |
| 20260901183402 | 0 | 264 | 0.9 | 2.6 | 0.00 | 0.25 | 0.25 | 1020.8 | |
| 20260901183305 | 0 | 264 | 0.9 | 2.6 | 0.00 | 0.25 | 0.25 | 1020.8 | |
| 20260901183202 | 0 | 264 | 0.9 | 2.6 | 0.00 | 0.25 | 0.25 | 1020.8 | |
| 20260901183102 | 0 | 264 | 0.9 | 2.6 | 0.00 | 0.25 | 0.25 | 1020.9 | |
| 20260901183002 | 0 | 264 | 0.9 | 2.6 | 0.00 | 0.25 | 0.25 | 1020.7 | |
| 20260901182902 | 0 | 264 | 0.9 | 3.5 | 0.00 | 0.25 | 0.25 | 1020.7 | |
| 20260901182803 | 0 | 264 | 0.9 | 3.5 | 0.00 | 0.25 | 0.25 | 1020.6 | |
| 20260901182703 | 0 | 264 | 0.9 | 3.5 | 0.00 | 0.25 | 0.25 | 1020.6 | |
| 20260901182603 | 0 | 264 | 1.7 | 3.5 | 0.00 | 0.25 | 0.25 | 1020.7 | |
| 20260901182504 | 0 | 264 | 0.9 | 3.5 | 0.00 | 0.25 | 0.25 | 1020.7 | |
| 20260901182404 | 0 | 264 | 0.9 | 3.5 | 0.00 | 0.25 | 0.25 | 1020.7 | |
| 20260901182305 | 0 | 264 | 0.0 | 3.5 | 0.00 | 0.25 | 0.25 | 1020.8 | |
| 20260901182204 | 0 | 264 | 0.9 | 3.5 | 0.00 | 0.25 | 0.25 | 1020.8 | |
| 20260901182102 | 0 | 264 | 0.9 | 3.5 | 0.00 | 0.25 | 0.25 | 1020.8 | |
| 20260901182004 | 0 | 264 | 0.9 | 3.5 | 0.00 | 0.25 | 0.25 | 1020.8 | |
| 20260901181902 | 0 | 264 | 0.9 | 2.6 | 0.00 | 0.25 | 0.25 | 1020.8 | |
| 20260901181802 | 0 | 264 | 0.0 | 1.7 | 0.00 | 0.25 | 0.25 | 1020.8 | |
| 20260901181702 | 0 | 264 | 0.9 | 1.7 | 0.00 | 0.25 | 0.25 | 1020.8 | |
| 20260901181604 | 0 | 264 | 0.9 | 1.7 | 0.00 | 0.25 | 0.25 | 1020.8 | |
| 20260901181503 | 0 | 264 | 0.9 | 1.7 | 0.00 | 0.25 | 0.25 | 1020.8 | |
| 20260901181403 | 0 | 264 | 0.0 | 1.7 | 0.00 | 0.25 | 0.25 | 1020.8 | |
| 20260901181302 | 0 | 264 | 0.9 | 1.7 | 0.00 | 0.25 | 0.25 | 1020.8 | |
| 20260901181203 | 0 | 264 | 0.9 | 1.7 | 0.00 | 0.25 | 0.25 | 1020.8 | |
| 20260901181103 | 0 | 264 | 0.9 | 1.7 | 0.00 | 0.25 | 0.25 | 1020.8 | |
| 20260901181006 | 0 | 264 | 0.9 | 1.7 | 0.00 | 0.25 | 0.25 | 1020.8 | |
| 20260901180902 | 0 | 264 | 0.9 | 3.5 | 0.00 | 0.25 | 0.25 | 1020.8 | |
| 20260901180802 | 0 | 264 | 0.9 | 3.5 | 0.00 | 0.25 | 0.25 | 1020.8 | |
| 20260901180702 | 0 | 264 | 0.9 | 3.5 | 0.00 | 0.25 | 0.25 | 1020.8 | |
| 20260901180602 | 0 | 264 | 0.9 | 3.5 | 0.00 | 0.25 | 0.25 | 1020.8 | |
| 20260901180506 | 0 | 264 | 0.9 | 3.5 | 0.00 | 0.25 | 0.25 | 1020.8 | |
| 20260901180403 | 0 | 264 | 0.9 | 3.5 | 0.00 | 0.25 | 0.25 | 1020.8 | |
| 20260901180304 | 0 | 264 | 0.9 | 3.5 | 0.00 | 0.25 | 0.25 | 1020.7 | |
| 20260901180204 | 0 | 264 | 0.9 | 3.5 | 0.00 | 0.25 | 0.25 | 1020.8 | |
| 20260901180002 | 0 | 264 | 0.9 | 3.5 | 0.00 | 0.25 | 0.25 | 1020.8 | |
| 20260901175901 | 0 | 264 | 0.9 | 2.6 | 0.00 | 0.25 | 0.25 | 1020.8 | |
| 20260901175802 | 0 | 264 | 0.9 | 2.6 | 0.00 | 0.25 | 0.25 | 1020.9 | |
| 20260901175701 | 0 | 264 | 0.9 | 2.6 | 0.00 | 0.25 | 0.25 | 1020.9 | |
| 20260901175603 | 0 | 264 | 0.9 | 2.6 | 0.00 | 0.25 | 0.25 | 1020.9 | |
| 20260901175505 | 64 | 264 | 0.9 | 2.6 | 0.00 | 0.25 | 0.25 | 72 | 1020.8 |
| 20260901175402 | 64 | 264 | 1.7 | 2.6 | 0.00 | 0.25 | 0.25 | 72 | 1020.8 |
| 20260901175305 | 64 | 264 | 1.7 | 2.6 | 0.00 | 0.25 | 0.25 | 72 | 1020.9 |
| 20260901175201 | 64 | 264 | 1.7 | 2.6 | 0.00 | 0.25 | 0.25 | 72 | 1020.9 |
| 20260901175103 | 64 | 264 | 0.9 | 2.6 | 0.00 | 0.25 | 0.25 | 72 | 1021.0 |
| 20260901175007 | 64 | 264 | 0.9 | 3.5 | 0.00 | 0.25 | 0.25 | 72 | 1020.9 |
| 20260901174903 | 64 | 265 | 0.9 | 3.5 | 0.00 | 0.25 | 0.25 | 72 | 1020.9 |
| 20260901174805 | 64 | 265 | 0.9 | 3.5 | 0.00 | 0.25 | 0.25 | 72 | 1020.9 |
| 20260901174702 | 64 | 265 | 0.9 | 3.5 | 0.00 | 0.25 | 0.25 | 72 | 1020.9 |
| 20260901174602 | 64 | 265 | 0.9 | 3.5 | 0.00 | 0.25 | 0.25 | 72 | 1020.9 |
| 20260901174502 | 0 | 265 | 1.7 | 3.5 | 0.00 | 0.25 | 0.25 | 1020.8 | |
| 20260901174402 | 0 | 265 | 1.7 | 4.3 | 0.00 | 0.25 | 0.25 | 1020.8 | |
| 20260901174301 | 0 | 265 | 1.7 | 4.3 | 0.00 | 0.25 | 0.25 | 1020.8 | |
| 20260901174202 | 0 | 265 | 1.7 | 4.3 | 0.00 | 0.25 | 0.25 | 1020.9 | |
| 20260901174102 | 0 | 265 | 0.9 | 4.3 | 0.00 | 0.25 | 0.25 | 1020.8 | |
| 20260901174008 | 0 | 265 | 0.9 | 4.3 | 0.00 | 0.25 | 0.25 | 1020.9 | |
| 20260901173902 | 0 | 265 | 1.7 | 4.3 | 0.00 | 0.25 | 0.25 | 1020.9 | |
| 20260901173801 | 0 | 265 | 1.7 | 4.3 | 0.00 | 0.25 | 0.25 | 1020.9 | |
| 20260901173702 | 0 | 265 | 1.7 | 4.3 | 0.00 | 0.25 | 0.25 | 1020.9 | |
| 20260901173602 | 0 | 266 | 1.7 | 4.3 | 0.00 | 0.25 | 0.25 | 1020.9 | |
| 20260901173503 | 0 | 266 | 2.6 | 4.3 | 0.00 | 0.25 | 0.25 | 1021.0 | |
| 20260901173402 | 0 | 266 | 2.6 | 4.3 | 0.00 | 0.25 | 0.25 | 1021.0 | |
| 20260901173302 | 0 | 266 | 1.7 | 4.3 | 0.00 | 0.25 | 0.25 | 1020.9 | |
| 20260901173206 | 0 | 266 | 0.9 | 4.3 | 0.00 | 0.25 | 0.25 | 1020.9 | |
| 20260901173105 | 0 | 266 | 1.7 | 4.3 | 0.00 | 0.25 | 0.25 | 1021.1 | |
| 20260901173005 | 0 | 266 | 1.7 | 4.3 | 0.00 | 0.25 | 0.25 | 1021.1 | |
| 20260901172902 | 0 | 271 | 1.7 | 4.3 | 0.00 | 0.25 | 0.25 | 1021.1 | |
| 20260901172803 | 0 | 271 | 1.7 | 4.3 | 0.00 | 0.25 | 0.25 | 1021.1 | |
| 20260901172702 | 0 | 271 | 1.7 | 4.3 | 0.00 | 0.25 | 0.25 | 1021.1 | |
| 20260901172602 | 0 | 271 | 1.7 | 4.3 | 0.00 | 0.25 | 0.25 | 1021.0 | |
| 20260901172506 | 65 | 272 | 1.7 | 4.3 | 0.00 | 0.25 | 0.25 | 72 | 1021.1 |
| 20260901172403 | 65 | 271 | 2.6 | 4.3 | 0.00 | 0.25 | 0.25 | 72 | 1021.1 |
| 20260901172304 | 65 | 272 | 2.6 | 4.3 | 0.00 | 0.25 | 0.25 | 72 | 1021.1 |
| 20260901172202 | 65 | 272 | 1.7 | 4.3 | 0.00 | 0.25 | 0.25 | 72 | 1021.1 |
| 20260901172101 | 65 | 272 | 1.7 | 6.1 | 0.00 | 0.25 | 0.25 | 72 | 1021.1 |
| 20260901172006 | 65 | 274 | 1.7 | 6.1 | 0.00 | 0.25 | 0.25 | 72 | 1021.0 |
| 20260901171905 | 65 | 274 | 2.6 | 6.1 | 0.00 | 0.25 | 0.25 | 72 | 1021.1 |
| 20260901171802 | 65 | 250 | 2.6 | 6.1 | 0.00 | 0.25 | 0.25 | 72 | 1021.1 |
| 20260901171702 | 65 | 250 | 2.6 | 6.1 | 0.00 | 0.25 | 0.25 | 72 | 1021.0 |
| 20260901171604 | 65 | 250 | 2.6 | 6.1 | 0.00 | 0.25 | 0.25 | 72 | 1021.0 |
| 20260901171504 | 0 | 241 | 2.6 | 6.1 | 0.00 | 0.25 | 0.25 | 1021.0 | |
| 20260901171406 | 0 | 233 | 1.7 | 6.1 | 0.00 | 0.25 | 0.25 | 1021.0 | |
| 20260901171302 | 0 | 224 | 2.6 | 6.1 | 0.00 | 0.25 | 0.25 | 1021.0 | |
| 20260901171203 | 0 | 224 | 2.6 | 6.1 | 0.00 | 0.25 | 0.25 | 1021.1 | |
| 20260901171102 | 0 | 268 | 1.7 | 6.1 | 0.00 | 0.25 | 0.25 | 1021.1 | |
| 20260901171003 | 0 | 266 | 2.6 | 6.1 | 0.00 | 0.25 | 0.25 | 1021.0 | |
| 20260901170902 | 0 | 266 | 3.5 | 6.1 | 0.00 | 0.25 | 0.25 | 1021.0 | |
| 20260901170802 | 0 | 265 | 3.5 | 6.1 | 0.00 | 0.25 | 0.25 | 1021.0 | |
| 20260901170702 | 0 | 268 | 1.7 | 6.1 | 0.00 | 0.25 | 0.25 | 1021.0 | |
| 20260901170602 | 0 | 268 | 2.6 | 6.1 | 0.00 | 0.25 | 0.25 | 1021.1 | |
| 20260901170504 | 0 | 266 | 1.7 | 6.1 | 0.00 | 0.25 | 0.25 | 1021.2 | |
| 20260901170403 | 0 | 279 | 1.7 | 6.1 | 0.00 | 0.25 | 0.25 | 1021.1 | |
| 20260901170307 | 0 | 279 | 2.6 | 6.1 | 0.00 | 0.25 | 0.25 | 1021.1 | |
| 20260901170202 | 0 | 281 | 2.6 | 6.1 | 0.00 | 0.25 | 0.25 | 1021.1 | |
| 20260901170004 | 0 | 289 | 3.5 | 6.1 | 0.00 | 0.25 | 0.25 | 1021.1 | |
| 20260901165901 | 0 | 279 | 2.6 | 5.2 | 0.00 | 0.25 | 0.25 | 1021.2 | |
| 20260901165802 | 0 | 269 | 2.6 | 6.1 | 0.00 | 0.25 | 0.25 | 1021.2 | |
| 20260901165702 | 0 | 261 | 3.5 | 6.1 | 0.00 | 0.25 | 0.25 | 1021.2 | |
| 20260901165602 | 0 | 254 | 2.6 | 6.1 | 0.00 | 0.25 | 0.25 | 1021.2 | |
| 20260901165504 | 0 | 254 | 1.7 | 7.8 | 0.00 | 0.25 | 0.25 | 1021.2 | |
| 20260901165404 | 0 | 248 | 2.6 | 7.8 | 0.00 | 0.25 | 0.25 | 1021.3 | |
| 20260901165306 | 0 | 248 | 2.6 | 8.7 | 0.00 | 0.25 | 0.25 | 1021.3 | |
| 20260901165202 | 0 | 269 | 2.6 | 8.7 | 0.00 | 0.25 | 0.25 | 1021.3 | |
| 20260901165101 | 0 | 268 | 3.5 | 8.7 | 0.00 | 0.25 | 0.25 | 1021.3 | |
| 20260901165005 | 0 | 259 | 3.5 | 8.7 | 0.00 | 0.25 | 0.25 | 1021.3 | |
| 20260901164901 | 0 | 199 | 3.5 | 8.7 | 0.00 | 0.25 | 0.25 | 1021.3 | |
| 20260901164803 | 0 | 271 | 2.6 | 8.7 | 0.00 | 0.25 | 0.25 | 1021.3 | |
| 20260901164702 | 0 | 272 | 3.5 | 8.7 | 0.00 | 0.25 | 0.25 | 1021.2 | |
| 20260901164605 | 0 | 271 | 3.5 | 8.7 | 0.00 | 0.25 | 0.25 | 1021.3 | |
| 20260901164505 | 0 | 250 | 3.5 | 8.7 | 0.00 | 0.25 | 0.25 | 1021.2 | |
| 20260901164405 | 0 | 241 | 3.5 | 8.7 | 0.00 | 0.25 | 0.25 | 1021.3 | |
| 20260901164302 | 0 | 266 | 3.5 | 7.8 | 0.00 | 0.25 | 0.25 | 1021.2 | |
| 20260901164202 | 0 | 283 | 2.6 | 7.8 | 0.00 | 0.25 | 0.25 | 1021.2 | |
| 20260901164103 | 0 | 235 | 1.7 | 7.8 | 0.00 | 0.25 | 0.25 | 1021.3 | |
| 20260901163954 | 0 | 233 | 1.7 | 7.8 | 0.00 | 0.25 | 0.25 | 1021.3 | |
| 20260901163850 | 66 | 235 | 1.7 | 7.8 | 0.00 | 0.25 | 0.25 | 72 | 1021.3 |
| 20260901163750 | 66 | 235 | 2.6 | 7.8 | 0.00 | 0.25 | 0.25 | 72 | 1021.3 |
| 20260901163649 | 66 | 243 | 2.6 | 7.8 | 0.00 | 0.25 | 0.25 | 72 | 1021.3 |
| 20260901163548 | 66 | 286 | 3.5 | 7.8 | 0.00 | 0.25 | 0.25 | 72 | 1021.2 |
| 20260901163449 | 66 | 266 | 3.5 | 7.8 | 0.00 | 0.25 | 0.25 | 72 | 1021.2 |
| 20260901163349 | 66 | 257 | 2.6 | 7.8 | 0.00 | 0.25 | 0.25 | 72 | 1021.2 |
| 20260901163250 | 66 | 275 | 2.6 | 7.8 | 0.00 | 0.25 | 0.25 | 72 | 1021.2 |
| 20260901163148 | 66 | 258 | 3.5 | 7.8 | 0.00 | 0.25 | 0.25 | 72 | 1021.1 |
| 20260901163047 | 66 | 265 | 2.6 | 7.8 | 0.00 | 0.25 | 0.25 | 72 | 1021.1 |
| 20260901162947 | 66 | 271 | 3.5 | 7.8 | 0.00 | 0.25 | 0.25 | 72 | 1021.2 |
| 20260901162841 | 67 | 271 | 3.5 | 7.8 | 0.00 | 0.25 | 0.25 | 72 | 1021.2 |
| 20260901162738 | 67 | 258 | 3.5 | 7.8 | 0.00 | 0.25 | 0.25 | 72 | 1021.1 |
| 20260901162635 | 67 | 272 | 3.5 | 7.8 | 0.00 | 0.25 | 0.25 | 72 | 1021.1 |
| 20260901162536 | 67 | 271 | 3.5 | 6.1 | 0.00 | 0.25 | 0.25 | 72 | 1021.1 |
| 20260901162434 | 67 | 272 | 3.5 | 5.2 | 0.00 | 0.25 | 0.25 | 72 | 1021.2 |
| 20260901162335 | 67 | 283 | 3.5 | 8.7 | 0.00 | 0.25 | 0.25 | 72 | 1021.2 |
| 20260901162234 | 67 | 268 | 3.5 | 8.7 | 0.00 | 0.25 | 0.25 | 72 | 1021.1 |
| 20260901162130 | 67 | 271 | 2.6 | 8.7 | 0.00 | 0.25 | 0.25 | 72 | 1021.1 |
| 20260901162028 | 67 | 261 | 2.6 | 8.7 | 0.00 | 0.25 | 0.25 | 72 | 1021.2 |
| 20260901161927 | 67 | 258 | 3.5 | 8.7 | 0.00 | 0.25 | 0.25 | 72 | 1021.2 |
| 20260901161827 | 67 | 281 | 3.5 | 8.7 | 0.00 | 0.25 | 0.25 | 72 | 1021.1 |
| 20260901161727 | 67 | 266 | 2.6 | 8.7 | 0.00 | 0.25 | 0.25 | 72 | 1021.2 |
| 20260901161627 | 67 | 269 | 2.6 | 8.7 | 0.00 | 0.25 | 0.25 | 72 | 1021.2 |
| 20260901161523 | 67 | 258 | 3.5 | 8.7 | 0.00 | 0.25 | 0.25 | 72 | 1021.1 |
| 20260901161421 | 67 | 255 | 4.3 | 8.7 | 0.00 | 0.25 | 0.25 | 72 | 1021.2 |
| 20260901161323 | 67 | 281 | 3.5 | 7.8 | 0.00 | 0.25 | 0.25 | 72 | 1021.2 |
| 20260901161219 | 67 | 269 | 3.5 | 7.8 | 0.00 | 0.25 | 0.25 | 71 | 1021.1 |
| 20260901161120 | 67 | 275 | 3.5 | 7.8 | 0.00 | 0.25 | 0.25 | 71 | 1021.1 |
| 20260901161018 | 67 | 281 | 3.5 | 7.8 | 0.00 | 0.25 | 0.25 | 71 | 1021.1 |
| 20260901160918 | 67 | 271 | 4.3 | 7.8 | 0.00 | 0.25 | 0.25 | 71 | 1021.0 |
| 20260901160817 | 67 | 274 | 2.6 | 7.8 | 0.00 | 0.25 | 0.25 | 70 | 1021.0 |
| 20260901160712 | 67 | 307 | 2.6 | 7.8 | 0.00 | 0.25 | 0.25 | 70 | 1021.1 |
| 20260901160612 | 67 | 264 | 2.6 | 7.8 | 0.00 | 0.25 | 0.25 | 70 | 1021.1 |
| 20260901160512 | 67 | 206 | 2.6 | 7.8 | 0.00 | 0.25 | 0.25 | 70 | 1021.1 |
| 20260901160411 | 67 | 255 | 4.3 | 8.7 | 0.00 | 0.25 | 0.25 | 70 | 1021.1 |
| 20260901160308 | 67 | 257 | 3.5 | 8.7 | 0.00 | 0.25 | 0.25 | 70 | 1021.1 |
| 20260901160207 | 67 | 259 | 2.6 | 8.7 | 0.00 | 0.25 | 0.25 | 70 | 1021.1 |
| 20260901160106 | 67 | 262 | 3.5 | 8.7 | 0.00 | 0.25 | 0.25 | 70 | 1021.1 |
| 20260901160008 | 67 | 262 | 3.5 | 8.7 | 0.00 | 0.25 | 0.25 | 70 | 1021.1 |
| 20260901155905 | 67 | 247 | 2.6 | 8.7 | 0.00 | 0.25 | 0.25 | 70 | 1021.1 |
| 20260901155802 | 67 | 245 | 3.5 | 8.7 | 0.00 | 0.25 | 0.25 | 71 | 1021.1 |
| 20260901155702 | 67 | 272 | 3.5 | 8.7 | 0.00 | 0.25 | 0.25 | 71 | 1021.1 |
| 20260901155602 | 67 | 261 | 3.5 | 9.6 | 0.00 | 0.25 | 0.25 | 72 | 1021.1 |
| 20260901155504 | 67 | 262 | 3.5 | 9.6 | 0.00 | 0.25 | 0.25 | 72 | 1021.2 |
| 20260901155402 | 67 | 269 | 3.5 | 9.6 | 0.00 | 0.25 | 0.25 | 71 | 1021.2 |
| 20260901155306 | 67 | 271 | 4.3 | 9.6 | 0.00 | 0.25 | 0.25 | 71 | 1021.1 |
| 20260901155201 | 67 | 283 | 3.5 | 9.6 | 0.00 | 0.25 | 0.25 | 71 | 1021.1 |
| 20260901155101 | 67 | 272 | 2.6 | 9.6 | 0.00 | 0.25 | 0.25 | 70 | 1021.1 |
| 20260901155004 | 67 | 244 | 2.6 | 9.6 | 0.00 | 0.25 | 0.25 | 70 | 1021.1 |
| 20260901154903 | 67 | 244 | 3.5 | 9.6 | 0.00 | 0.25 | 0.25 | 70 | 1021.2 |
| 20260901154802 | 67 | 271 | 5.2 | 9.6 | 0.00 | 0.25 | 0.25 | 70 | 1021.3 |
| 20260901154701 | 67 | 271 | 4.3 | 9.6 | 0.00 | 0.25 | 0.25 | 70 | 1021.1 |
| 20260901154603 | 67 | 278 | 2.6 | 8.7 | 0.00 | 0.25 | 0.25 | 71 | 1021.2 |
| 20260901154504 | 67 | 278 | 3.5 | 9.6 | 0.00 | 0.25 | 0.25 | 71 | 1021.2 |
| 20260901154402 | 67 | 227 | 5.2 | 9.6 | 0.00 | 0.25 | 0.25 | 71 | 1021.2 |
| 20260901154302 | 67 | 272 | 3.5 | 9.6 | 0.00 | 0.25 | 0.25 | 70 | 1021.2 |
| 20260901154202 | 67 | 258 | 2.6 | 9.6 | 0.00 | 0.25 | 0.25 | 70 | 1021.2 |
| 20260901154102 | 67 | 257 | 2.6 | 9.6 | 0.00 | 0.25 | 0.25 | 70 | 1021.2 |
| 20260901154001 | 67 | 258 | 3.5 | 9.6 | 0.00 | 0.25 | 0.25 | 70 | 1021.2 |
| 20260901153902 | 67 | 258 | 2.6 | 9.6 | 0.00 | 0.25 | 0.25 | 70 | 1021.2 |
| 20260901153804 | 67 | 265 | 2.6 | 9.6 | 0.00 | 0.25 | 0.25 | 70 | 1021.2 |
| 20260901153702 | 67 | 307 | 3.5 | 9.6 | 0.00 | 0.25 | 0.25 | 69 | 1021.2 |
| 20260901153603 | 67 | 289 | 3.5 | 9.6 | 0.00 | 0.25 | 0.25 | 70 | 1021.2 |
| 20260901153503 | 67 | 262 | 2.6 | 8.7 | 0.00 | 0.25 | 0.25 | 69 | 1021.1 |
| 20260901153401 | 67 | 245 | 2.6 | 8.7 | 0.00 | 0.25 | 0.25 | 69 | 1021.2 |
| 20260901153303 | 67 | 269 | 2.6 | 8.7 | 0.00 | 0.25 | 0.25 | 69 | 1021.1 |
| 20260901153201 | 67 | 259 | 2.6 | 8.7 | 0.00 | 0.25 | 0.25 | 69 | 1021.1 |
| 20260901153101 | 67 | 258 | 2.6 | 8.7 | 0.00 | 0.25 | 0.25 | 70 | 1021.1 |
| 20260901153001 | 67 | 192 | 1.7 | 8.7 | 0.00 | 0.25 | 0.25 | 70 | 1021.1 |
| 20260901152901 | 67 | 193 | 1.7 | 8.7 | 0.00 | 0.25 | 0.25 | 69 | 1021.1 |
| 20260901152801 | 67 | 193 | 3.5 | 8.7 | 0.00 | 0.25 | 0.25 | 69 | 1021.1 |
| 20260901152701 | 67 | 258 | 4.3 | 8.7 | 0.00 | 0.25 | 0.25 | 69 | 1021.2 |
| 20260901152603 | 67 | 264 | 4.3 | 8.7 | 0.00 | 0.25 | 0.25 | 70 | 1021.1 |
| 20260901152503 | 67 | 258 | 3.5 | 8.7 | 0.00 | 0.25 | 0.25 | 70 | 1021.1 |
| 20260901152402 | 67 | 251 | 3.5 | 8.7 | 0.00 | 0.25 | 0.25 | 70 | 1021.1 |
| 20260901152301 | 67 | 278 | 4.3 | 8.7 | 0.00 | 0.25 | 0.25 | 70 | 1021.0 |
| 20260901152202 | 67 | 257 | 3.5 | 8.7 | 0.00 | 0.25 | 0.25 | 70 | 1021.0 |
| 20260901152101 | 67 | 274 | 3.5 | 8.7 | 0.00 | 0.25 | 0.25 | 70 | 1021.1 |
| 20260901152004 | 67 | 279 | 3.5 | 8.7 | 0.00 | 0.25 | 0.25 | 70 | 1021.1 |
| 20260901151903 | 67 | 272 | 3.5 | 8.7 | 0.00 | 0.25 | 0.25 | 71 | 1021.0 |
| 20260901151802 | 68 | 268 | 3.5 | 8.7 | 0.00 | 0.25 | 0.25 | 71 | 1021.0 |
| 20260901151702 | 68 | 269 | 3.5 | 8.7 | 0.00 | 0.25 | 0.25 | 71 | 1021.1 |
| 20260901151602 | 68 | 275 | 3.5 | 8.7 | 0.00 | 0.25 | 0.25 | 71 | 1021.1 |
| 20260901151503 | 68 | 258 | 4.3 | 8.7 | 0.00 | 0.25 | 0.25 | 71 | 1021.1 |
| 20260901151358 | 68 | 265 | 3.5 | 8.7 | 0.00 | 0.25 | 0.25 | 71 | 1021.1 |
| 20260901151258 | 68 | 252 | 2.6 | 8.7 | 0.00 | 0.25 | 0.25 | 71 | 1021.1 |
| 20260901151159 | 68 | 250 | 3.5 | 8.7 | 0.00 | 0.25 | 0.25 | 71 | 1021.1 |
| 20260901151058 | 68 | 258 | 4.3 | 8.7 | 0.00 | 0.25 | 0.25 | 71 | 1021.0 |
| 20260901150956 | 68 | 265 | 4.3 | 8.7 | 0.00 | 0.25 | 0.25 | 71 | 1021.0 |
| 20260901150854 | 68 | 252 | 2.6 | 8.7 | 0.00 | 0.25 | 0.25 | 71 | 1021.1 |
| 20260901150752 | 68 | 258 | 2.6 | 8.7 | 0.00 | 0.25 | 0.25 | 71 | 1021.1 |
| 20260901150651 | 68 | 259 | 2.6 | 8.7 | 0.00 | 0.25 | 0.25 | 71 | 1021.0 |
| 20260901150549 | 68 | 276 | 1.7 | 8.7 | 0.00 | 0.25 | 0.25 | 71 | 1020.9 |
| 20260901150449 | 68 | 283 | 2.6 | 8.7 | 0.00 | 0.25 | 0.25 | 71 | 1020.9 |
| 20260901150350 | 68 | 261 | 4.3 | 8.7 | 0.00 | 0.25 | 0.25 | 71 | 1020.9 |
| 20260901150247 | 68 | 228 | 4.3 | 8.7 | 0.00 | 0.25 | 0.25 | 71 | 1020.9 |
| 20260901150144 | 68 | 197 | 4.3 | 8.7 | 0.00 | 0.25 | 0.25 | 70 | 1021.0 |
| 20260901150040 | 68 | 283 | 4.3 | 8.7 | 0.00 | 0.25 | 0.25 | 70 | 1021.0 |
| 20260901145937 | 68 | 261 | 3.5 | 6.1 | 0.00 | 0.25 | 0.25 | 70 | 1020.9 |
| 20260901145833 | 68 | 276 | 3.5 | 6.1 | 0.00 | 0.25 | 0.25 | 70 | 1021.0 |
| 20260901145733 | 68 | 282 | 2.6 | 7.8 | 0.00 | 0.25 | 0.25 | 70 | 1020.9 |
| 20260901145631 | 68 | 283 | 2.6 | 7.8 | 0.00 | 0.25 | 0.25 | 70 | 1020.9 |
| 20260901145531 | 68 | 285 | 2.6 | 7.8 | 0.00 | 0.25 | 0.25 | 70 | 1021.0 |
| 20260901145430 | 68 | 288 | 3.5 | 7.8 | 0.00 | 0.25 | 0.25 | 70 | 1021.0 |
| 20260901145330 | 68 | 266 | 3.5 | 7.8 | 0.00 | 0.25 | 0.25 | 70 | 1021.0 |
| 20260901145230 | 68 | 298 | 2.6 | 7.8 | 0.00 | 0.25 | 0.25 | 70 | 1021.0 |
| 20260901145129 | 68 | 302 | 1.7 | 7.8 | 0.00 | 0.25 | 0.25 | 70 | 1020.9 |
| 20260901145029 | 0 | 254 | 2.6 | 7.8 | 0.00 | 0.25 | 0.25 | 1021.0 | |
| 20260901144930 | 0 | 251 | 3.5 | 7.8 | 0.00 | 0.25 | 0.25 | 1021.0 | |
| 20260901144827 | 0 | 251 | 4.3 | 7.8 | 0.00 | 0.25 | 0.25 | 1021.0 | |
| 20260901144727 | 0 | 231 | 3.5 | 6.1 | 0.00 | 0.25 | 0.25 | 1020.9 | |
| 20260901144627 | 0 | 293 | 1.7 | 6.1 | 0.00 | 0.25 | 0.25 | 1020.9 | |
| 20260901144526 | 0 | 295 | 2.6 | 7.8 | 0.00 | 0.25 | 0.25 | 1021.0 | |
| 20260901144423 | 0 | 295 | 3.5 | 7.8 | 0.00 | 0.25 | 0.25 | 1021.0 | |
| 20260901144324 | 0 | 243 | 2.6 | 7.8 | 0.00 | 0.25 | 0.25 | 1020.9 | |
| 20260901144222 | 0 | 235 | 2.6 | 7.8 | 0.00 | 0.25 | 0.25 | 1021.0 | |
| 20260901144122 | 0 | 213 | 2.6 | 7.8 | 0.00 | 0.25 | 0.25 | 1021.0 | |
| 20260901144024 | 0 | 185 | 2.6 | 7.8 | 0.00 | 0.25 | 0.25 | 1020.9 | |
| 20260901143921 | 0 | 262 | 1.7 | 9.6 | 0.00 | 0.25 | 0.25 | 1021.0 | |
| 20260901143818 | 0 | 262 | 1.7 | 9.6 | 0.00 | 0.25 | 0.25 | 1021.0 | |
| 20260901143717 | 0 | 264 | 2.6 | 9.6 | 0.00 | 0.25 | 0.25 | 1021.0 | |
| 20260901143614 | 0 | 264 | 3.5 | 9.6 | 0.00 | 0.25 | 0.25 | 1021.0 | |
| 20260901143512 | 0 | 276 | 3.5 | 9.6 | 0.00 | 0.25 | 0.25 | 1021.1 | |
| 20260901143412 | 0 | 268 | 4.3 | 9.6 | 0.00 | 0.25 | 0.25 | 1021.0 | |
| 20260901143312 | 0 | 295 | 3.5 | 9.6 | 0.00 | 0.25 | 0.25 | 1021.1 | |
| 20260901143210 | 0 | 274 | 2.6 | 9.6 | 0.00 | 0.25 | 0.25 | 1021.1 | |
| 20260901143110 | 0 | 276 | 4.3 | 9.6 | 0.00 | 0.25 | 0.25 | 1021.0 | |
| 20260901143007 | 0 | 261 | 5.2 | 9.6 | 0.00 | 0.25 | 0.25 | 1021.0 | |
| 20260901142907 | 0 | 266 | 4.3 | 8.7 | 0.00 | 0.25 | 0.25 | 1021.1 | |
| 20260901142807 | 68 | 296 | 5.2 | 8.7 | 0.00 | 0.25 | 0.25 | 70 | 1021.1 |
| 20260901142705 | 68 | 271 | 5.2 | 8.7 | 0.00 | 0.25 | 0.25 | 70 | 1021.1 |
| 20260901142605 | 68 | 283 | 3.5 | 8.7 | 0.00 | 0.25 | 0.25 | 70 | 1021.1 |
| 20260901142504 | 68 | 266 | 2.6 | 8.7 | 0.00 | 0.25 | 0.25 | 70 | 1021.1 |
| 20260901142405 | 68 | 245 | 2.6 | 8.7 | 0.00 | 0.25 | 0.25 | 70 | 1021.1 |
| 20260901142306 | 68 | 245 | 4.3 | 8.7 | 0.00 | 0.25 | 0.25 | 70 | 1021.1 |
| 20260901142206 | 68 | 247 | 4.3 | 8.7 | 0.00 | 0.25 | 0.25 | 70 | 1021.1 |
| 20260901142104 | 68 | 276 | 3.5 | 8.7 | 0.00 | 0.25 | 0.25 | 70 | 1021.1 |
| 20260901142004 | 68 | 258 | 3.5 | 7.8 | 0.00 | 0.25 | 0.25 | 70 | 1021.1 |
| 20260901141900 | 68 | 264 | 3.5 | 7.8 | 0.00 | 0.25 | 0.25 | 70 | 1021.1 |
| 20260901141802 | 68 | 264 | 2.6 | 7.8 | 0.00 | 0.25 | 0.25 | 70 | 1021.1 |
| 20260901141702 | 68 | 271 | 1.7 | 7.8 | 0.00 | 0.25 | 0.25 | 70 | 1021.1 |
| 20260901141601 | 69 | 266 | 2.6 | 8.7 | 0.00 | 0.25 | 0.25 | 70 | 1021.1 |
| 20260901141502 | 69 | 264 | 3.5 | 8.7 | 0.00 | 0.25 | 0.25 | 70 | 1021.1 |
| 20260901141402 | 69 | 262 | 5.2 | 8.7 | 0.00 | 0.25 | 0.25 | 70 | 1021.1 |
| 20260901141301 | 69 | 321 | 4.3 | 8.7 | 0.00 | 0.25 | 0.25 | 70 | 1021.1 |
| 20260901141204 | 69 | 255 | 2.6 | 8.7 | 0.00 | 0.25 | 0.25 | 70 | 1021.1 |
| 20260901141103 | 69 | 269 | 1.7 | 8.7 | 0.00 | 0.25 | 0.25 | 70 | 1021.1 |
| 20260901141005 | 69 | 269 | 2.6 | 8.7 | 0.00 | 0.25 | 0.25 | 70 | 1021.2 |
| 20260901140904 | 69 | 269 | 2.6 | 8.7 | 0.00 | 0.25 | 0.25 | 70 | 1021.1 |
| 20260901140804 | 69 | 278 | 4.3 | 8.7 | 0.00 | 0.25 | 0.25 | 70 | 1021.1 |
| 20260901140704 | 69 | 278 | 4.3 | 10.4 | 0.00 | 0.25 | 0.25 | 70 | 1021.1 |
| 20260901140601 | 69 | 255 | 3.5 | 10.4 | 0.00 | 0.25 | 0.25 | 70 | 1021.1 |
| 20260901140503 | 69 | 302 | 3.5 | 10.4 | 0.00 | 0.25 | 0.25 | 70 | 1021.2 |
| 20260901140401 | 69 | 283 | 3.5 | 10.4 | 0.00 | 0.25 | 0.25 | 70 | 1021.2 |
| 20260901140302 | 69 | 285 | 3.5 | 10.4 | 0.00 | 0.25 | 0.25 | 70 | 1021.2 |
| 20260901140201 | 0 | 298 | 2.6 | 10.4 | 0.00 | 0.25 | 0.25 | 1021.1 | |
| 20260901140002 | 0 | 197 | 2.6 | 10.4 | 0.00 | 0.25 | 0.25 | 1021.2 | |
| 20260901135901 | 0 | 303 | 3.5 | 10.4 | 0.00 | 0.25 | 0.25 | 1021.1 | |
| 20260901135804 | 0 | 274 | 5.2 | 10.4 | 0.00 | 0.25 | 0.25 | 1021.1 | |
| 20260901135700 | 0 | 279 | 5.2 | 10.4 | 0.00 | 0.25 | 0.25 | 1021.2 | |
| 20260901135559 | 0 | 279 | 5.2 | 8.7 | 0.00 | 0.25 | 0.25 | 1021.1 | |
| 20260901135457 | 0 | 266 | 4.3 | 8.7 | 0.00 | 0.25 | 0.25 | 1021.1 | |
| 20260901135356 | 0 | 251 | 3.5 | 8.7 | 0.00 | 0.25 | 0.25 | 1021.1 | |
| 20260901135256 | 0 | 266 | 3.5 | 8.7 | 0.00 | 0.25 | 0.25 | 1021.1 | |
| 20260901135153 | 0 | 254 | 2.6 | 8.7 | 0.00 | 0.25 | 0.25 | 1021.1 | |
| 20260901135050 | 0 | 247 | 1.7 | 8.7 | 0.00 | 0.25 | 0.25 | 1021.1 | |
| 20260901134950 | 0 | 203 | 3.5 | 8.7 | 0.00 | 0.25 | 0.25 | 1021.1 | |
| 20260901134850 | 0 | 278 | 3.5 | 8.7 | 0.00 | 0.25 | 0.25 | 1021.1 | |
| 20260901134749 | 0 | 279 | 4.3 | 8.7 | 0.00 | 0.25 | 0.25 | 1021.1 | |
| 20260901134648 | 0 | 279 | 5.2 | 8.7 | 0.00 | 0.25 | 0.25 | 1021.1 | |
| 20260901134546 | 0 | 296 | 4.3 | 8.7 | 0.00 | 0.25 | 0.25 | 1021.1 | |
| 20260901134442 | 0 | 274 | 3.5 | 8.7 | 0.00 | 0.25 | 0.25 | 1021.0 | |
| 20260901134342 | 0 | 289 | 3.5 | 8.7 | 0.00 | 0.25 | 0.25 | 1021.1 | |
| 20260901134242 | 0 | 266 | 3.5 | 8.7 | 0.00 | 0.25 | 0.25 | 1021.1 | |
| 20260901134142 | 0 | 257 | 3.5 | 8.7 | 0.00 | 0.25 | 0.25 | 1021.1 | |
| 20260901134043 | 0 | 243 | 3.5 | 8.7 | 0.00 | 0.25 | 0.25 | 1021.1 | |
| 20260901133940 | 0 | 258 | 2.6 | 8.7 | 0.00 | 0.25 | 0.25 | 1021.1 | |
| 20260901133837 | 0 | 262 | 2.6 | 8.7 | 0.00 | 0.25 | 0.25 | 1021.1 | |
| 20260901133736 | 0 | 262 | 4.3 | 9.6 | 0.00 | 0.25 | 0.25 | 1021.1 | |
| 20260901133635 | 69 | 262 | 4.3 | 9.6 | 0.00 | 0.25 | 0.25 | 70 | 1021.1 |
| 20260901133534 | 69 | 276 | 2.6 | 9.6 | 0.00 | 0.25 | 0.25 | 70 | 1021.2 |
| 20260901133433 | 69 | 278 | 4.3 | 9.6 | 0.00 | 0.25 | 0.25 | 70 | 1021.1 |
| 20260901133334 | 69 | 278 | 3.5 | 9.6 | 0.00 | 0.25 | 0.25 | 70 | 1021.1 |
| 20260901133233 | 69 | 265 | 2.6 | 9.6 | 0.00 | 0.25 | 0.25 | 70 | 1021.2 |
| 20260901133133 | 69 | 265 | 2.6 | 9.6 | 0.00 | 0.25 | 0.25 | 70 | 1021.2 |
| 20260901133032 | 69 | 265 | 3.5 | 9.6 | 0.00 | 0.25 | 0.25 | 70 | 1021.1 |
| 20260901132934 | 69 | 262 | 5.2 | 9.6 | 0.00 | 0.25 | 0.25 | 70 | 1021.2 |
| 20260901132832 | 69 | 261 | 5.2 | 9.6 | 0.00 | 0.25 | 0.25 | 70 | 1021.2 |
| 20260901132730 | 69 | 269 | 2.6 | 8.7 | 0.00 | 0.25 | 0.25 | 70 | 1021.2 |
| 20260901132630 | 68 | 257 | 1.7 | 8.7 | 0.00 | 0.25 | 0.25 | 70 | 1021.2 |
| 20260901132528 | 68 | 257 | 1.7 | 8.7 | 0.00 | 0.25 | 0.25 | 70 | 1021.2 |
| 20260901132428 | 68 | 257 | 1.7 | 8.7 | 0.00 | 0.25 | 0.25 | 70 | 1021.2 |
| 20260901132327 | 68 | 262 | 3.5 | 8.7 | 0.00 | 0.25 | 0.25 | 70 | 1021.2 |
| 20260901132226 | 68 | 264 | 3.5 | 8.7 | 0.00 | 0.25 | 0.25 | 70 | 1021.1 |
| 20260901132126 | 68 | 281 | 3.5 | 8.7 | 0.00 | 0.25 | 0.25 | 70 | 1021.2 |
| 20260901132023 | 68 | 283 | 4.3 | 8.7 | 0.00 | 0.25 | 0.25 | 70 | 1021.3 |
| 20260901131923 | 68 | 276 | 4.3 | 8.7 | 0.00 | 0.25 | 0.25 | 70 | 1021.2 |
| 20260901131822 | 68 | 289 | 3.5 | 8.7 | 0.00 | 0.25 | 0.25 | 70 | 1021.2 |
| 20260901131722 | 68 | 285 | 3.5 | 8.7 | 0.00 | 0.25 | 0.25 | 70 | 1021.3 |
| 20260901131622 | 68 | 275 | 3.5 | 8.7 | 0.00 | 0.25 | 0.25 | 70 | 1021.2 |
| 20260901131519 | 68 | 268 | 2.6 | 8.7 | 0.00 | 0.25 | 0.25 | 70 | 1021.2 |
| 20260901131416 | 68 | 269 | 3.5 | 8.7 | 0.00 | 0.25 | 0.25 | 70 | 1021.2 |
| 20260901131313 | 68 | 264 | 3.5 | 8.7 | 0.00 | 0.25 | 0.25 | 70 | 1021.2 |
| 20260901131213 | 68 | 261 | 4.3 | 8.7 | 0.00 | 0.25 | 0.25 | 70 | 1021.2 |
| 20260901131113 | 68 | 257 | 3.5 | 8.7 | 0.00 | 0.25 | 0.25 | 70 | 1021.1 |
| 20260901131012 | 68 | 261 | 1.7 | 7.8 | 0.00 | 0.25 | 0.25 | 70 | 1021.3 |
| 20260901130913 | 68 | 247 | 1.7 | 7.8 | 0.00 | 0.25 | 0.25 | 70 | 1021.2 |
| 20260901130810 | 68 | 237 | 2.6 | 7.8 | 0.00 | 0.25 | 0.25 | 70 | 1021.2 |
| 20260901130707 | 68 | 268 | 2.6 | 7.8 | 0.00 | 0.25 | 0.25 | 70 | 1021.3 |
| 20260901130605 | 68 | 286 | 3.5 | 6.1 | 0.00 | 0.25 | 0.25 | 70 | 1021.2 |
| 20260901130506 | 68 | 274 | 3.5 | 6.1 | 0.00 | 0.25 | 0.25 | 70 | 1021.3 |
| 20260901130404 | 0 | 266 | 2.6 | 6.1 | 0.00 | 0.25 | 0.25 | 1021.3 | |
| 20260901130304 | 0 | 258 | 1.7 | 6.1 | 0.00 | 0.25 | 0.25 | 1021.3 | |
| 20260901130203 | 0 | 258 | 2.6 | 6.1 | 0.00 | 0.25 | 0.25 | 1021.3 | |
| 20260901130103 | 0 | 261 | 2.6 | 6.1 | 0.00 | 0.25 | 0.25 | 1021.3 | |
| 20260901130003 | 0 | 268 | 2.6 | 6.1 | 0.00 | 0.25 | 0.25 | 1021.3 | |
| 20260901125901 | 0 | 250 | 3.5 | 6.1 | 0.00 | 0.25 | 0.25 | 1021.3 | |
| 20260901125802 | 0 | 207 | 3.5 | 6.1 | 0.00 | 0.25 | 0.25 | 1021.2 | |
| 20260901125703 | 0 | 265 | 1.7 | 6.1 | 0.00 | 0.25 | 0.25 | 1021.3 | |
| 20260901125601 | 0 | 266 | 1.7 | 7.8 | 0.00 | 0.25 | 0.25 | 1021.2 | |
| 20260901125502 | 0 | 268 | 1.7 | 7.8 | 0.00 | 0.25 | 0.25 | 1021.3 | |
| 20260901125403 | 0 | 272 | 1.7 | 8.7 | 0.00 | 0.25 | 0.25 | 1021.3 | |
| 20260901125307 | 0 | 272 | 1.7 | 8.7 | 0.00 | 0.25 | 0.25 | 1021.2 | |
| 20260901125202 | 0 | 275 | 2.6 | 8.7 | 0.00 | 0.25 | 0.25 | 1021.2 | |
| 20260901125101 | 0 | 274 | 2.6 | 8.7 | 0.00 | 0.25 | 0.25 | 1021.2 | |
| 20260901125004 | 0 | 262 | 2.6 | 8.7 | 0.00 | 0.25 | 0.25 | 1021.4 | |
| 20260901124901 | 0 | 262 | 4.3 | 8.7 | 0.00 | 0.25 | 0.25 | 1021.3 | |
| 20260901124802 | 0 | 290 | 4.3 | 8.7 | 0.00 | 0.25 | 0.25 | 1021.3 | |
| 20260901124703 | 0 | 320 | 4.3 | 8.7 | 0.00 | 0.25 | 0.25 | 1021.3 | |
| 20260901124602 | 0 | 292 | 4.3 | 8.7 | 0.00 | 0.25 | 0.25 | 1021.3 | |
| 20260901124501 | 0 | 286 | 4.3 | 8.7 | 0.00 | 0.25 | 0.25 | 1021.3 | |
| 20260901124402 | 0 | 303 | 4.3 | 8.7 | 0.00 | 0.25 | 0.25 | 1021.3 | |
| 20260901124304 | 0 | 292 | 4.3 | 8.7 | 0.00 | 0.25 | 0.25 | 1021.2 | |
| 20260901124202 | 0 | 279 | 4.3 | 8.7 | 0.00 | 0.25 | 0.25 | 1021.3 | |
| 20260901124102 | 0 | 257 | 3.5 | 8.7 | 0.00 | 0.25 | 0.25 | 1021.3 | |
| 20260901124001 | 0 | 286 | 1.7 | 8.7 | 0.00 | 0.25 | 0.25 | 1021.3 | |
| 20260901123902 | 0 | 266 | 1.7 | 8.7 | 0.00 | 0.25 | 0.25 | 1021.3 | |
| 20260901123801 | 0 | 268 | 2.6 | 8.7 | 0.00 | 0.25 | 0.25 | 1021.3 | |
| 20260901123701 | 0 | 266 | 3.5 | 8.7 | 0.00 | 0.25 | 0.25 | 1021.3 | |
| 20260901123602 | 0 | 266 | 3.5 | 8.7 | 0.00 | 0.25 | 0.25 | 1021.3 | |
| 20260901123503 | 0 | 269 | 2.6 | 8.7 | 0.00 | 0.25 | 0.25 | 1021.3 | |
| 20260901123403 | 0 | 281 | 2.6 | 8.7 | 0.00 | 0.25 | 0.25 | 1021.3 | |
| 20260901123303 | 0 | 292 | 3.5 | 8.7 | 0.00 | 0.25 | 0.25 | 1021.3 | |
| 20260901123202 | 0 | 272 | 3.5 | 8.7 | 0.00 | 0.25 | 0.25 | 1021.3 | |
| 20260901123102 | 0 | 275 | 4.3 | 8.7 | 0.00 | 0.25 | 0.25 | 1021.2 | |
| 20260901123001 | 0 | 269 | 3.5 | 8.7 | 0.00 | 0.25 | 0.25 | 1021.3 | |
| 20260901122902 | 0 | 278 | 3.5 | 8.7 | 0.00 | 0.25 | 0.25 | 1021.3 | |
| 20260901122802 | 0 | 279 | 4.3 | 9.6 | 0.00 | 0.25 | 0.25 | 1021.4 | |
| 20260901122701 | 0 | 266 | 4.3 | 9.6 | 0.00 | 0.25 | 0.25 | 1021.3 | |
| 20260901122601 | 0 | 262 | 5.2 | 9.6 | 0.00 | 0.25 | 0.25 | 1021.2 | |
| 20260901122502 | 0 | 298 | 3.5 | 9.6 | 0.00 | 0.25 | 0.25 | 1021.3 | |
| 20260901122402 | 0 | 279 | 1.7 | 9.6 | 0.00 | 0.25 | 0.25 | 1021.3 | |
| 20260901122256 | 0 | 296 | 1.7 | 9.6 | 0.00 | 0.25 | 0.25 | 1021.4 | |
| 20260901122158 | 0 | 299 | 2.6 | 9.6 | 0.00 | 0.25 | 0.25 | 1021.3 | |
| 20260901122055 | 0 | 264 | 3.5 | 9.6 | 0.00 | 0.25 | 0.25 | 1021.3 | |
| 20260901121952 | 0 | 296 | 5.2 | 9.6 | 0.00 | 0.25 | 0.25 | 1021.3 | |
| 20260901121844 | 0 | 302 | 5.2 | 11.3 | 0.00 | 0.25 | 0.25 | 1021.3 | |
| 20260901121741 | 0 | 292 | 5.2 | 11.3 | 0.00 | 0.25 | 0.25 | 1021.3 | |
| 20260901121643 | 0 | 264 | 5.2 | 11.3 | 0.00 | 0.25 | 0.25 | 1021.3 | |
| 20260901121543 | 0 | 275 | 2.6 | 11.3 | 0.00 | 0.25 | 0.25 | 1021.3 | |
| 20260901121440 | 0 | 230 | 2.6 | 11.3 | 0.00 | 0.25 | 0.25 | 1021.4 | |
| 20260901121340 | 0 | 226 | 1.7 | 11.3 | 0.00 | 0.25 | 0.25 | 1021.4 | |
| 20260901121237 | 0 | 262 | 3.5 | 11.3 | 0.00 | 0.25 | 0.25 | 1021.3 | |
| 20260901121136 | 0 | 272 | 5.2 | 11.3 | 0.00 | 0.25 | 0.25 | 1021.3 | |
| 20260901121038 | 0 | 248 | 5.2 | 11.3 | 0.00 | 0.25 | 0.25 | 1021.4 | |
| 20260901120930 | 0 | 238 | 4.3 | 11.3 | 0.00 | 0.25 | 0.25 | 1021.4 | |
| 20260901120832 | 0 | 250 | 3.5 | 10.4 | 0.00 | 0.25 | 0.25 | 1021.3 | |
| 20260901120729 | 0 | 248 | 3.5 | 10.4 | 0.00 | 0.25 | 0.25 | 1021.4 | |
| 20260901120629 | 0 | 254 | 3.5 | 10.4 | 0.00 | 0.25 | 0.25 | 1021.4 | |
| 20260901120529 | 0 | 228 | 6.1 | 10.4 | 0.00 | 0.25 | 0.25 | 1021.4 | |
| 20260901120431 | 0 | 288 | 5.2 | 10.4 | 0.00 | 0.25 | 0.25 | 1021.4 | |
| 20260901120328 | 0 | 265 | 3.5 | 9.6 | 0.00 | 0.25 | 0.25 | 1021.4 | |
| 20260901120223 | 0 | 250 | 3.5 | 9.6 | 0.00 | 0.25 | 0.25 | 1021.5 | |
| 20260901120121 | 0 | 286 | 3.5 | 9.6 | 0.00 | 0.25 | 0.25 | 1021.3 | |
| 20260901120019 | 0 | 230 | 2.6 | 9.6 | 0.00 | 0.25 | 0.25 | 1021.4 | |
| 20260901115916 | 0 | 262 | 2.6 | 9.6 | 0.00 | 0.25 | 0.25 | 1021.4 | |
| 20260901115808 | 68 | 259 | 4.3 | 9.6 | 0.00 | 0.25 | 0.25 | 70 | 1021.4 |
| 20260901115702 | 68 | 275 | 5.2 | 9.6 | 0.00 | 0.25 | 0.25 | 70 | 1021.4 |
| 20260901115602 | 68 | 276 | 3.5 | 9.6 | 0.00 | 0.25 | 0.25 | 70 | 1021.4 |
| 20260901115503 | 68 | 234 | 1.7 | 8.7 | 0.00 | 0.25 | 0.25 | 70 | 1021.4 |
| 20260901115404 | 68 | 235 | 3.5 | 8.7 | 0.00 | 0.25 | 0.25 | 70 | 1021.4 |
| 20260901115306 | 68 | 235 | 3.5 | 8.7 | 0.00 | 0.25 | 0.25 | 70 | 1021.4 |
| 20260901115201 | 68 | 228 | 3.5 | 7.8 | 0.00 | 0.25 | 0.25 | 70 | 1021.4 |
| 20260901115101 | 68 | 224 | 4.3 | 7.8 | 0.00 | 0.25 | 0.25 | 70 | 1021.4 |
| 20260901115002 | 68 | 259 | 4.3 | 8.7 | 0.00 | 0.25 | 0.25 | 70 | 1021.3 |
| 20260901114859 | 68 | 255 | 4.3 | 8.7 | 0.00 | 0.25 | 0.25 | 70 | 1021.3 |
| 20260901114802 | 68 | 290 | 4.3 | 8.7 | 0.00 | 0.25 | 0.25 | 70 | 1021.3 |
| 20260901114700 | 68 | 279 | 3.5 | 8.7 | 0.00 | 0.25 | 0.25 | 69 | 1021.3 |
| 20260901114558 | 68 | 269 | 2.6 | 8.7 | 0.00 | 0.25 | 0.25 | 69 | 1021.3 |
| 20260901114457 | 68 | 234 | 2.6 | 8.7 | 0.00 | 0.25 | 0.25 | 69 | 1021.3 |
| 20260901114355 | 68 | 233 | 3.5 | 9.6 | 0.00 | 0.25 | 0.25 | 69 | 1021.3 |
| 20260901114254 | 68 | 275 | 4.3 | 9.6 | 0.00 | 0.25 | 0.25 | 69 | 1021.4 |
| 20260901114154 | 68 | 306 | 4.3 | 9.6 | 0.00 | 0.25 | 0.25 | 69 | 1021.3 |
| 20260901114054 | 68 | 264 | 3.5 | 9.6 | 0.00 | 0.25 | 0.25 | 71 | 1021.4 |
| 20260901113951 | 68 | 264 | 2.6 | 9.6 | 0.00 | 0.25 | 0.25 | 69 | 1021.4 |
| 20260901113850 | 68 | 262 | 4.3 | 9.6 | 0.00 | 0.25 | 0.25 | 69 | 1021.4 |
| 20260901113748 | 68 | 313 | 5.2 | 9.6 | 0.00 | 0.25 | 0.25 | 69 | 1021.4 |
| 20260901113645 | 68 | 266 | 3.5 | 9.6 | 0.00 | 0.25 | 0.25 | 70 | 1021.5 |
| 20260901113542 | 68 | 288 | 4.3 | 9.6 | 0.00 | 0.25 | 0.25 | 75 | 1021.4 |
| 20260901113441 | 68 | 255 | 5.2 | 9.6 | 0.00 | 0.25 | 0.25 | 75 | 1021.4 |
| 20260901113339 | 68 | 247 | 4.3 | 8.7 | 0.00 | 0.25 | 0.25 | 75 | 1021.4 |
| 20260901113240 | 68 | 248 | 4.3 | 7.8 | 0.00 | 0.25 | 0.25 | 75 | 1021.4 |
| 20260901113139 | 68 | 238 | 4.3 | 7.8 | 0.00 | 0.25 | 0.25 | 75 | 1021.5 |
| 20260901113038 | 68 | 262 | 3.5 | 7.8 | 0.00 | 0.25 | 0.25 | 75 | 1021.4 |
| 20260901112934 | 68 | 275 | 2.6 | 7.8 | 0.00 | 0.25 | 0.25 | 75 | 1021.4 |
| 20260901112834 | 68 | 259 | 3.5 | 7.8 | 0.00 | 0.25 | 0.25 | 75 | 1021.3 |
| 20260901112730 | 68 | 234 | 4.3 | 7.8 | 0.00 | 0.25 | 0.25 | 75 | 1021.4 |
| 20260901112630 | 68 | 271 | 3.5 | 7.8 | 0.00 | 0.25 | 0.25 | 75 | 1021.3 |
| 20260901112530 | 67 | 244 | 3.5 | 7.8 | 0.00 | 0.25 | 0.25 | 75 | 1021.5 |
| 20260901112429 | 67 | 298 | 4.3 | 7.8 | 0.00 | 0.25 | 0.25 | 75 | 1021.4 |
| 20260901112328 | 67 | 282 | 3.5 | 7.8 | 0.00 | 0.25 | 0.25 | 75 | 1021.4 |
| 20260901112226 | 0 | 268 | 3.5 | 8.7 | 0.00 | 0.25 | 0.25 | 1021.4 | |
| 20260901112123 | 0 | 276 | 2.6 | 8.7 | 0.00 | 0.25 | 0.25 | 1021.4 | |
| 20260901112020 | 0 | 238 | 1.7 | 8.7 | 0.00 | 0.25 | 0.25 | 1021.4 | |
| 20260901111921 | 0 | 281 | 3.5 | 8.7 | 0.00 | 0.25 | 0.25 | 1021.4 | |
| 20260901111820 | 0 | 262 | 4.3 | 8.7 | 0.00 | 0.25 | 0.25 | 1021.5 | |
| 20260901111718 | 0 | 261 | 2.6 | 8.7 | 0.00 | 0.25 | 0.25 | 1021.4 | |
| 20260901111619 | 0 | 237 | 2.6 | 8.7 | 0.00 | 0.25 | 0.25 | 1021.4 | |
| 20260901111515 | 0 | 282 | 3.5 | 8.7 | 0.00 | 0.25 | 0.25 | 1021.4 | |
| 20260901111413 | 0 | 285 | 4.3 | 8.7 | 0.00 | 0.25 | 0.25 | 1021.4 | |
| 20260901111313 | 0 | 230 | 3.5 | 8.7 | 0.00 | 0.25 | 0.25 | 1021.4 | |
| 20260901111213 | 0 | 274 | 3.5 | 7.8 | 0.00 | 0.25 | 0.25 | 1021.4 | |
| 20260901111112 | 0 | 290 | 4.3 | 8.7 | 0.00 | 0.25 | 0.25 | 1021.4 | |
| 20260901111011 | 0 | 262 | 2.6 | 8.7 | 0.00 | 0.25 | 0.25 | 1021.5 | |
| 20260901110908 | 0 | 188 | 1.7 | 8.7 | 0.00 | 0.25 | 0.25 | 1021.4 | |
| 20260901110803 | 0 | 186 | 2.6 | 8.7 | 0.00 | 0.25 | 0.25 | 1021.4 | |
| 20260901110702 | 0 | 271 | 3.5 | 8.7 | 0.00 | 0.25 | 0.25 | 1021.3 | |
| 20260901110602 | 0 | 264 | 4.3 | 8.7 | 0.00 | 0.25 | 0.25 | 1021.4 | |
| 20260901110503 | 0 | 264 | 4.3 | 8.7 | 0.00 | 0.25 | 0.25 | 1021.4 | |
| 20260901110402 | 0 | 272 | 4.3 | 8.7 | 0.00 | 0.25 | 0.25 | 1021.3 | |
| 20260901110301 | 0 | 271 | 4.3 | 8.7 | 0.00 | 0.25 | 0.25 | 1021.3 | |
| 20260901110201 | 0 | 252 | 5.2 | 8.7 | 0.00 | 0.25 | 0.25 | 1021.3 | |
| 20260901110001 | 0 | 257 | 5.2 | 8.7 | 0.00 | 0.25 | 0.25 | 1021.3 | |
| 20260901105901 | 0 | 303 | 4.3 | 7.8 | 0.00 | 0.25 | 0.25 | 1021.3 | |
| 20260901105801 | 67 | 258 | 3.5 | 7.8 | 0.00 | 0.25 | 0.25 | 75 | 1021.3 |
| 20260901105701 | 67 | 244 | 3.5 | 7.8 | 0.00 | 0.25 | 0.25 | 75 | 1021.3 |
| 20260901105603 | 67 | 282 | 3.5 | 6.1 | 0.00 | 0.25 | 0.25 | 75 | 1021.3 |
| 20260901105501 | 67 | 266 | 2.6 | 6.1 | 0.00 | 0.25 | 0.25 | 75 | 1021.3 |
| 20260901105401 | 67 | 266 | 2.6 | 6.1 | 0.00 | 0.25 | 0.25 | 75 | 1021.3 |
| 20260901105305 | 67 | 264 | 3.5 | 6.1 | 0.00 | 0.25 | 0.25 | 75 | 1021.3 |
| 20260901105202 | 67 | 258 | 2.6 | 6.1 | 0.00 | 0.25 | 0.25 | 75 | 1021.3 |
| 20260901105102 | 67 | 262 | 2.6 | 6.1 | 0.00 | 0.25 | 0.25 | 75 | 1021.3 |
| 20260901105002 | 67 | 262 | 2.6 | 6.1 | 0.00 | 0.25 | 0.25 | 75 | 1021.3 |
| 20260901104901 | 67 | 228 | 3.5 | 7.8 | 0.00 | 0.25 | 0.25 | 75 | 1021.3 |
| 20260901104802 | 0 | 289 | 3.5 | 7.8 | 0.00 | 0.25 | 0.25 | 1021.3 | |
| 20260901104703 | 0 | 275 | 2.6 | 8.7 | 0.00 | 0.25 | 0.25 | 1021.2 | |
| 20260901104601 | 0 | 261 | 3.5 | 8.7 | 0.00 | 0.25 | 0.25 | 1021.2 | |
| 20260901104501 | 0 | 269 | 3.5 | 8.7 | 0.00 | 0.25 | 0.25 | 1021.3 | |
| 20260901104403 | 68 | 274 | 3.5 | 8.7 | 0.00 | 0.25 | 0.25 | 75 | 1021.2 |
| 20260901104301 | 68 | 269 | 3.5 | 8.7 | 0.00 | 0.25 | 0.25 | 75 | 1021.3 |
| 20260901104202 | 68 | 298 | 3.5 | 8.7 | 0.00 | 0.25 | 0.25 | 75 | 1021.3 |
| 20260901104057 | 68 | 289 | 4.3 | 8.7 | 0.00 | 0.25 | 0.25 | 75 | 1021.2 |
| 20260901103957 | 68 | 285 | 5.2 | 8.7 | 0.00 | 0.25 | 0.25 | 75 | 1021.3 |
| 20260901103851 | 68 | 269 | 5.2 | 8.7 | 0.00 | 0.25 | 0.25 | 75 | 1021.3 |
| 20260901103751 | 68 | 241 | 5.2 | 8.7 | 0.00 | 0.25 | 0.25 | 75 | 1021.2 |
| 20260901103648 | 68 | 302 | 4.3 | 8.7 | 0.00 | 0.25 | 0.25 | 75 | 1021.2 |
| 20260901103549 | 68 | 286 | 3.5 | 8.7 | 0.00 | 0.25 | 0.25 | 75 | 1021.2 |
| 20260901103448 | 68 | 288 | 4.3 | 8.7 | 0.00 | 0.25 | 0.25 | 75 | 1021.3 |
| 20260901103344 | 0 | 296 | 4.3 | 8.7 | 0.00 | 0.25 | 0.25 | 1021.2 | |
| 20260901103242 | 68 | 276 | 3.5 | 8.7 | 0.00 | 0.25 | 0.25 | 75 | 1021.2 |
| 20260901103142 | 68 | 247 | 3.5 | 8.7 | 0.00 | 0.25 | 0.25 | 75 | 1021.3 |
| 20260901103042 | 68 | 282 | 3.5 | 8.7 | 0.00 | 0.25 | 0.25 | 75 | 1021.2 |
| 20260901102932 | 68 | 298 | 4.3 | 9.6 | 0.00 | 0.25 | 0.25 | 75 | 1021.3 |
| 20260901102832 | 68 | 272 | 5.2 | 9.6 | 0.00 | 0.25 | 0.25 | 75 | 1021.2 |
| 20260901102735 | 68 | 241 | 5.2 | 9.6 | 0.00 | 0.25 | 0.25 | 75 | 1021.2 |
| 20260901102633 | 68 | 272 | 4.3 | 9.6 | 0.00 | 0.25 | 0.25 | 75 | 1021.2 |
| 20260901102532 | 68 | 272 | 4.3 | 9.6 | 0.00 | 0.25 | 0.25 | 75 | 1021.2 |
| 20260901102431 | 68 | 281 | 4.3 | 9.6 | 0.00 | 0.25 | 0.25 | 75 | 1021.1 |
| 20260901102331 | 68 | 250 | 3.5 | 9.6 | 0.00 | 0.25 | 0.25 | 75 | 1021.3 |
| 20260901102227 | 68 | 283 | 4.3 | 9.6 | 0.00 | 0.25 | 0.25 | 75 | 1021.2 |
| 20260901102127 | 68 | 259 | 6.1 | 9.6 | 0.00 | 0.25 | 0.25 | 75 | 1021.3 |
| 20260901102026 | 68 | 266 | 5.2 | 9.6 | 0.00 | 0.25 | 0.25 | 74 | 1021.2 |
| 20260901101923 | 67 | 285 | 4.3 | 8.7 | 0.00 | 0.25 | 0.25 | 74 | 1021.2 |
| 20260901101822 | 67 | 272 | 4.3 | 8.7 | 0.00 | 0.25 | 0.25 | 76 | 1021.2 |
| 20260901101720 | 67 | 310 | 4.3 | 8.7 | 0.00 | 0.25 | 0.25 | 73 | 1021.2 |
| 20260901101619 | 67 | 286 | 4.3 | 8.7 | 0.00 | 0.25 | 0.25 | 74 | 1021.2 |
| 20260901101519 | 67 | 279 | 4.3 | 8.7 | 0.00 | 0.25 | 0.25 | 72 | 1021.3 |
| 20260901101419 | 67 | 268 | 4.3 | 8.7 | 0.00 | 0.25 | 0.25 | 72 | 1021.2 |
| 20260901101319 | 67 | 290 | 4.3 | 9.6 | 0.00 | 0.25 | 0.25 | 73 | 1021.4 |
| 20260901101216 | 67 | 269 | 5.2 | 9.6 | 0.00 | 0.25 | 0.25 | 73 | 1021.3 |
| 20260901101115 | 67 | 262 | 5.2 | 9.6 | 0.00 | 0.25 | 0.25 | 76 | 1021.2 |
| 20260901101015 | 67 | 276 | 3.5 | 9.6 | 0.00 | 0.25 | 0.25 | 76 | 1021.2 |
| 20260901100914 | 67 | 293 | 3.5 | 9.6 | 0.00 | 0.25 | 0.25 | 76 | 1021.3 |
| 20260901100814 | 67 | 269 | 4.3 | 9.6 | 0.00 | 0.25 | 0.25 | 76 | 1021.4 |
| 20260901100714 | 67 | 264 | 4.3 | 9.6 | 0.00 | 0.25 | 0.25 | 76 | 1021.3 |
| 20260901100617 | 67 | 288 | 5.2 | 9.6 | 0.00 | 0.25 | 0.25 | 76 | 1021.3 |
| 20260901100514 | 67 | 255 | 4.3 | 9.6 | 0.00 | 0.25 | 0.25 | 76 | 1021.2 |
| 20260901100412 | 67 | 262 | 3.5 | 9.6 | 0.00 | 0.25 | 0.25 | 76 | 1021.3 |
| 20260901100312 | 67 | 289 | 4.3 | 8.7 | 0.00 | 0.25 | 0.25 | 77 | 1021.3 |
| 20260901100210 | 67 | 262 | 3.5 | 8.7 | 0.00 | 0.25 | 0.25 | 79 | 1021.2 |
| 20260901100111 | 67 | 233 | 1.7 | 8.7 | 0.00 | 0.25 | 0.25 | 79 | 1021.2 |
| 20260901100011 | 66 | 293 | 2.6 | 8.7 | 0.00 | 0.25 | 0.25 | 77 | 1021.3 |
| 20260901095912 | 66 | 293 | 4.3 | 8.7 | 0.00 | 0.25 | 0.25 | 77 | 1021.2 |
| 20260901095809 | 66 | 272 | 4.3 | 8.7 | 0.00 | 0.25 | 0.25 | 77 | 1021.3 |
| 20260901095710 | 66 | 303 | 3.5 | 8.7 | 0.00 | 0.25 | 0.25 | 77 | 1021.3 |
| 20260901095609 | 66 | 278 | 3.5 | 8.7 | 0.00 | 0.25 | 0.25 | 77 | 1021.3 |
| 20260901095509 | 66 | 262 | 4.3 | 8.7 | 0.00 | 0.25 | 0.25 | 77 | 1021.3 |
| 20260901095410 | 66 | 251 | 4.3 | 8.7 | 0.00 | 0.25 | 0.25 | 76 | 1021.2 |
| 20260901095308 | 67 | 282 | 5.2 | 8.7 | 0.00 | 0.25 | 0.25 | 76 | 1021.2 |
| 20260901095208 | 67 | 248 | 5.2 | 8.7 | 0.00 | 0.25 | 0.25 | 76 | 1021.2 |
| 20260901095108 | 67 | 283 | 4.3 | 8.7 | 0.00 | 0.25 | 0.25 | 77 | 1021.2 |
| 20260901095008 | 67 | 286 | 4.3 | 8.7 | 0.00 | 0.25 | 0.25 | 77 | 1021.2 |
| 20260901094906 | 67 | 285 | 4.3 | 8.7 | 0.00 | 0.25 | 0.25 | 77 | 1021.2 |
| 20260901094804 | 67 | 268 | 3.5 | 6.1 | 0.00 | 0.25 | 0.25 | 77 | 1021.3 |
| 20260901094707 | 67 | 250 | 3.5 | 7.8 | 0.00 | 0.25 | 0.25 | 77 | 1021.1 |
| 20260901094604 | 67 | 285 | 3.5 | 7.8 | 0.00 | 0.25 | 0.25 | 77 | 1021.2 |
| 20260901094504 | 67 | 268 | 3.5 | 7.8 | 0.00 | 0.25 | 0.25 | 77 | 1021.2 |
| 20260901094404 | 67 | 269 | 3.5 | 7.8 | 0.00 | 0.25 | 0.25 | 77 | 1021.1 |
| 20260901094302 | 67 | 266 | 4.3 | 7.8 | 0.00 | 0.25 | 0.25 | 77 | 1021.1 |
| 20260901094201 | 67 | 259 | 3.5 | 8.7 | 0.00 | 0.25 | 0.25 | 77 | 1021.1 |
| 20260901094101 | 67 | 271 | 3.5 | 8.7 | 0.00 | 0.25 | 0.25 | 77 | 1021.1 |
| 20260901094002 | 67 | 274 | 4.3 | 8.7 | 0.00 | 0.25 | 0.25 | 78 | 1021.1 |
| 20260901093902 | 67 | 276 | 4.3 | 8.7 | 0.00 | 0.25 | 0.25 | 78 | 1021.2 |
| 20260901093802 | 67 | 264 | 3.5 | 8.7 | 0.00 | 0.25 | 0.25 | 78 | 1021.1 |
| 20260901093701 | 67 | 285 | 3.5 | 8.7 | 0.00 | 0.25 | 0.25 | 77 | 1021.1 |
| 20260901093601 | 67 | 285 | 3.5 | 8.7 | 0.00 | 0.25 | 0.25 | 77 | 1021.0 |
| 20260901093503 | 67 | 257 | 3.5 | 8.7 | 0.00 | 0.25 | 0.25 | 77 | 1021.1 |
| 20260901093403 | 67 | 262 | 4.3 | 8.7 | 0.00 | 0.25 | 0.25 | 77 | 1021.1 |
| 20260901093303 | 67 | 259 | 3.5 | 8.7 | 0.00 | 0.25 | 0.25 | 78 | 1021.1 |
| 20260901093202 | 67 | 293 | 3.5 | 8.7 | 0.00 | 0.25 | 0.25 | 76 | 1021.0 |
| 20260901093101 | 67 | 261 | 3.5 | 8.7 | 0.00 | 0.25 | 0.25 | 76 | 1021.0 |
| 20260901093001 | 67 | 303 | 4.3 | 8.7 | 0.00 | 0.25 | 0.25 | 78 | 1021.0 |
| 20260901092901 | 67 | 283 | 4.3 | 8.7 | 0.00 | 0.25 | 0.25 | 77 | 1021.1 |
| 20260901092801 | 67 | 303 | 3.5 | 8.7 | 0.00 | 0.25 | 0.25 | 77 | 1021.1 |
| 20260901092701 | 67 | 307 | 3.5 | 8.7 | 0.00 | 0.25 | 0.25 | 78 | 1021.1 |
| 20260901092600 | 66 | 276 | 3.5 | 8.7 | 0.00 | 0.25 | 0.25 | 77 | 1021.0 |
| 20260901092501 | 66 | 276 | 3.5 | 8.7 | 0.00 | 0.25 | 0.25 | 77 | 1021.1 |
| 20260901092358 | 66 | 265 | 5.2 | 8.7 | 0.00 | 0.25 | 0.25 | 77 | 1021.0 |
| 20260901092257 | 66 | 276 | 4.3 | 8.7 | 0.00 | 0.25 | 0.25 | 78 | 1021.1 |
| 20260901092157 | 66 | 286 | 3.5 | 8.7 | 0.00 | 0.25 | 0.25 | 78 | 1021.0 |
| 20260901092056 | 66 | 278 | 3.5 | 8.7 | 0.00 | 0.25 | 0.25 | 78 | 1021.1 |
| 20260901091956 | 66 | 286 | 3.5 | 8.7 | 0.00 | 0.25 | 0.25 | 78 | 1021.1 |
| 20260901091857 | 66 | 266 | 2.6 | 8.7 | 0.00 | 0.25 | 0.25 | 79 | 1021.0 |
| 20260901091756 | 67 | 261 | 2.6 | 8.7 | 0.00 | 0.25 | 0.25 | 79 | 1021.0 |
| 20260901091657 | 67 | 264 | 3.5 | 8.7 | 0.00 | 0.25 | 0.25 | 78 | 1021.1 |
| 20260901091555 | 67 | 262 | 4.3 | 8.7 | 0.00 | 0.25 | 0.25 | 78 | 1021.0 |
| 20260901091455 | 67 | 281 | 3.5 | 8.7 | 0.00 | 0.25 | 0.25 | 77 | 1021.0 |
| 20260901091354 | 67 | 266 | 4.3 | 8.7 | 0.00 | 0.25 | 0.25 | 79 | 1021.0 |
| 20260901091255 | 67 | 293 | 4.3 | 8.7 | 0.00 | 0.25 | 0.25 | 79 | 1021.0 |
| 20260901091153 | 67 | 261 | 3.5 | 8.7 | 0.00 | 0.25 | 0.25 | 78 | 1020.9 |
| 20260901091050 | 67 | 264 | 3.5 | 7.8 | 0.00 | 0.25 | 0.25 | 80 | 1020.9 |
| 20260901090950 | 66 | 274 | 2.6 | 7.8 | 0.00 | 0.25 | 0.25 | 80 | 1021.0 |
| 20260901090850 | 66 | 261 | 3.5 | 7.8 | 0.00 | 0.25 | 0.25 | 80 | 1021.0 |
| 20260901090749 | 66 | 276 | 4.3 | 7.8 | 0.00 | 0.25 | 0.25 | 83 | 1021.0 |
| 20260901090649 | 65 | 282 | 4.3 | 7.8 | 0.00 | 0.25 | 0.25 | 83 | 1021.0 |
| 20260901090545 | 65 | 283 | 5.2 | 6.1 | 0.00 | 0.25 | 0.25 | 83 | 1020.9 |
| 20260901090442 | 65 | 278 | 4.3 | 7.8 | 0.00 | 0.25 | 0.25 | 83 | 1020.9 |
| 20260901090343 | 65 | 279 | 3.5 | 7.8 | 0.00 | 0.25 | 0.25 | 83 | 1021.0 |
| 20260901090243 | 65 | 275 | 2.6 | 7.8 | 0.00 | 0.25 | 0.25 | 82 | 1020.9 |
| 20260901090142 | 64 | 271 | 3.5 | 7.8 | 0.00 | 0.25 | 0.25 | 82 | 1020.9 |
| 20260901090041 | 64 | 271 | 2.6 | 7.8 | 0.00 | 0.25 | 0.25 | 82 | 1020.9 |
| 20260901085938 | 64 | 271 | 2.6 | 7.8 | 0.00 | 0.25 | 0.25 | 81 | 1020.9 |
| 20260901085838 | 65 | 271 | 3.5 | 7.8 | 0.00 | 0.25 | 0.25 | 80 | 1020.9 |
| 20260901085737 | 65 | 269 | 3.5 | 7.8 | 0.00 | 0.25 | 0.25 | 81 | 1020.9 |
| 20260901085635 | 65 | 278 | 3.5 | 7.8 | 0.00 | 0.25 | 0.25 | 81 | 1021.0 |
| 20260901085536 | 65 | 278 | 2.6 | 7.8 | 0.00 | 0.25 | 0.25 | 81 | 1020.9 |
| 20260901085435 | 65 | 298 | 2.6 | 7.8 | 0.00 | 0.25 | 0.25 | 81 | 1020.9 |
| 20260901085331 | 65 | 274 | 3.5 | 7.8 | 0.00 | 0.25 | 0.25 | 81 | 1020.9 |
| 20260901085230 | 65 | 278 | 3.5 | 9.6 | 0.00 | 0.25 | 0.25 | 81 | 1020.8 |
| 20260901085130 | 65 | 268 | 3.5 | 9.6 | 0.00 | 0.25 | 0.25 | 81 | 1020.8 |
| 20260901085030 | 65 | 269 | 3.5 | 9.6 | 0.00 | 0.25 | 0.25 | 81 | 1020.8 |
| 20260901084929 | 65 | 254 | 3.5 | 9.6 | 0.00 | 0.25 | 0.25 | 79 | 1020.8 |
| 20260901084829 | 65 | 255 | 4.3 | 9.6 | 0.00 | 0.25 | 0.25 | 79 | 1020.8 |
| 20260901084723 | 65 | 258 | 4.3 | 9.6 | 0.00 | 0.25 | 0.25 | 79 | 1020.8 |
| 20260901084620 | 65 | 265 | 4.3 | 9.6 | 0.00 | 0.25 | 0.25 | 79 | 1020.7 |
| 20260901084521 | 66 | 265 | 4.3 | 11.3 | 0.00 | 0.25 | 0.25 | 79 | 1020.7 |
| 20260901084419 | 66 | 271 | 5.2 | 11.3 | 0.00 | 0.25 | 0.25 | 78 | 1020.8 |
| 20260901084317 | 66 | 266 | 4.3 | 11.3 | 0.00 | 0.25 | 0.25 | 79 | 1020.7 |
| 20260901084215 | 66 | 275 | 3.5 | 11.3 | 0.00 | 0.25 | 0.25 | 78 | 1020.8 |
| 20260901084109 | 67 | 299 | 4.3 | 11.3 | 0.00 | 0.25 | 0.25 | 78 | 1020.7 |
| 20260901084010 | 67 | 264 | 4.3 | 11.3 | 0.00 | 0.25 | 0.25 | 78 | 1020.8 |
| 20260901083907 | 67 | 252 | 3.5 | 11.3 | 0.00 | 0.25 | 0.25 | 78 | 1020.8 |
| 20260901083803 | 67 | 265 | 3.5 | 11.3 | 0.00 | 0.25 | 0.25 | 78 | 1020.7 |
| 20260901083704 | 67 | 271 | 4.3 | 11.3 | 0.00 | 0.25 | 0.25 | 78 | 1020.7 |
| 20260901083602 | 67 | 320 | 3.5 | 11.3 | 0.00 | 0.25 | 0.25 | 78 | 1020.7 |
| 20260901083501 | 67 | 268 | 3.5 | 9.6 | 0.00 | 0.25 | 0.25 | 78 | 1020.7 |
| 20260901083401 | 67 | 247 | 3.5 | 9.6 | 0.00 | 0.25 | 0.25 | 79 | 1020.7 |
| 20260901083301 | 67 | 282 | 4.3 | 9.6 | 0.00 | 0.25 | 0.25 | 79 | 1020.7 |
| 20260901083201 | 67 | 278 | 5.2 | 9.6 | 0.00 | 0.25 | 0.25 | 79 | 1020.7 |
| 20260901083102 | 67 | 281 | 2.6 | 9.6 | 0.00 | 0.25 | 0.25 | 80 | 1020.7 |
| 20260901083002 | 67 | 279 | 1.7 | 9.6 | 0.00 | 0.25 | 0.25 | 80 | 1020.7 |
| 20260901082904 | 66 | 279 | 3.5 | 9.6 | 0.00 | 0.25 | 0.25 | 80 | 1020.6 |
| 20260901082801 | 66 | 281 | 3.5 | 9.6 | 0.00 | 0.25 | 0.25 | 80 | 1020.6 |
| 20260901082701 | 66 | 272 | 3.5 | 8.7 | 0.00 | 0.25 | 0.25 | 80 | 1020.6 |
| 20260901082601 | 66 | 289 | 3.5 | 8.7 | 0.00 | 0.25 | 0.25 | 80 | 1020.7 |
| 20260901082501 | 65 | 269 | 3.5 | 8.7 | 0.00 | 0.25 | 0.25 | 80 | 1020.7 |
| 20260901082401 | 65 | 264 | 3.5 | 8.7 | 0.00 | 0.25 | 0.25 | 79 | 1020.6 |
| 20260901082302 | 66 | 268 | 3.5 | 8.7 | 0.00 | 0.25 | 0.25 | 79 | 1020.5 |
| 20260901082201 | 66 | 268 | 3.5 | 8.7 | 0.00 | 0.25 | 0.25 | 79 | 1020.5 |
| 20260901082101 | 66 | 281 | 2.6 | 8.7 | 0.00 | 0.25 | 0.25 | 77 | 1020.5 |
| 20260901082001 | 66 | 296 | 3.5 | 8.7 | 0.00 | 0.25 | 0.25 | 77 | 1020.5 |
| 20260901081902 | 66 | 292 | 4.3 | 8.7 | 0.00 | 0.25 | 0.25 | 77 | 1020.5 |
| 20260901081801 | 67 | 282 | 5.2 | 8.7 | 0.00 | 0.25 | 0.25 | 77 | 1020.5 |
| 20260901081704 | 67 | 300 | 5.2 | 8.7 | 0.00 | 0.25 | 0.25 | 77 | 1020.4 |
| 20260901081603 | 67 | 290 | 5.2 | 8.7 | 0.00 | 0.25 | 0.25 | 79 | 1020.5 |
| 20260901081502 | 67 | 278 | 3.5 | 8.7 | 0.00 | 0.25 | 0.25 | 79 | 1020.4 |
| 20260901081402 | 67 | 292 | 3.5 | 8.7 | 0.00 | 0.25 | 0.25 | 79 | 1020.4 |
| 20260901081303 | 67 | 289 | 3.5 | 8.7 | 0.00 | 0.25 | 0.25 | 79 | 1020.4 |
| 20260901081202 | 66 | 282 | 2.6 | 8.7 | 0.00 | 0.25 | 0.25 | 80 | 1020.4 |
| 20260901081105 | 66 | 275 | 3.5 | 8.7 | 0.00 | 0.25 | 0.25 | 80 | 1020.4 |
| 20260901081001 | 66 | 278 | 4.3 | 8.7 | 0.00 | 0.25 | 0.25 | 80 | 1020.4 |
| 20260901080902 | 66 | 276 | 4.3 | 8.7 | 0.00 | 0.25 | 0.25 | 79 | 1020.4 |
| 20260901080802 | 66 | 279 | 3.5 | 8.7 | 0.00 | 0.25 | 0.25 | 79 | 1020.4 |
| 20260901080704 | 66 | 266 | 2.6 | 8.7 | 0.00 | 0.25 | 0.25 | 79 | 1020.3 |
| 20260901080603 | 66 | 292 | 1.7 | 8.7 | 0.00 | 0.25 | 0.25 | 79 | 1020.4 |
| 20260901080503 | 66 | 292 | 1.7 | 8.7 | 0.00 | 0.25 | 0.25 | 80 | 1020.4 |
| 20260901080401 | 66 | 292 | 3.5 | 8.7 | 0.00 | 0.25 | 0.25 | 81 | 1020.4 |
| 20260901080301 | 66 | 295 | 3.5 | 8.7 | 0.00 | 0.25 | 0.25 | 81 | 1020.4 |
| 20260901080202 | 66 | 268 | 3.5 | 8.7 | 0.00 | 0.25 | 0.25 | 80 | 1020.4 |
| 20260901080106 | 65 | 283 | 4.3 | 8.7 | 0.00 | 0.25 | 0.25 | 81 | 1020.5 |
| 20260901080004 | 65 | 271 | 3.5 | 8.7 | 0.00 | 0.25 | 0.25 | 81 | 1020.4 |
| 20260901075901 | 65 | 259 | 3.5 | 8.7 | 0.00 | 0.25 | 0.25 | 79 | 1020.3 |
| 20260901075802 | 65 | 259 | 3.5 | 8.7 | 0.00 | 0.25 | 0.25 | 82 | 1020.3 |
| 20260901075701 | 65 | 269 | 3.5 | 8.7 | 0.00 | 0.25 | 0.25 | 82 | 1020.3 |
| 20260901075602 | 65 | 264 | 3.5 | 8.7 | 0.00 | 0.25 | 0.25 | 82 | 1020.4 |
| 20260901075503 | 65 | 265 | 3.5 | 8.7 | 0.00 | 0.25 | 0.25 | 83 | 1020.4 |
| 20260901075401 | 65 | 274 | 3.5 | 8.7 | 0.00 | 0.25 | 0.25 | 84 | 1020.3 |
| 20260901075307 | 64 | 276 | 3.5 | 8.7 | 0.00 | 0.25 | 0.25 | 84 | 1020.4 |
| 20260901075201 | 64 | 279 | 3.5 | 8.7 | 0.00 | 0.25 | 0.25 | 84 | 1020.4 |
| 20260901075103 | 64 | 258 | 3.5 | 7.8 | 0.00 | 0.25 | 0.25 | 85 | 1020.3 |
| 20260901075004 | 64 | 262 | 3.5 | 7.8 | 0.00 | 0.25 | 0.25 | 85 | 1020.3 |
| 20260901074902 | 64 | 261 | 3.5 | 7.8 | 0.00 | 0.25 | 0.25 | 84 | 1020.3 |
| 20260901074801 | 64 | 265 | 2.6 | 7.8 | 0.00 | 0.25 | 0.25 | 84 | 1020.3 |
| 20260901074701 | 64 | 275 | 1.7 | 6.1 | 0.00 | 0.25 | 0.25 | 84 | 1020.2 |
| 20260901074601 | 64 | 276 | 1.7 | 7.8 | 0.00 | 0.25 | 0.25 | 84 | 1020.2 |
| 20260901074501 | 65 | 276 | 1.7 | 7.8 | 0.00 | 0.25 | 0.25 | 83 | 1020.2 |
| 20260901074401 | 65 | 276 | 1.7 | 7.8 | 0.00 | 0.25 | 0.25 | 82 | 1020.3 |
| 20260901074301 | 65 | 275 | 2.6 | 7.8 | 0.00 | 0.25 | 0.25 | 82 | 1020.2 |
| 20260901074202 | 65 | 275 | 2.6 | 7.8 | 0.00 | 0.25 | 0.25 | 82 | 1020.2 |
| 20260901074102 | 65 | 275 | 2.6 | 7.8 | 0.00 | 0.25 | 0.25 | 82 | 1020.2 |
| 20260901074002 | 65 | 278 | 3.5 | 7.8 | 0.00 | 0.25 | 0.25 | 81 | 1020.2 |
| 20260901073903 | 65 | 282 | 3.5 | 7.8 | 0.00 | 0.25 | 0.25 | 81 | 1020.2 |
| 20260901073805 | 65 | 278 | 3.5 | 7.8 | 0.00 | 0.25 | 0.25 | 82 | 1020.2 |
| 20260901073704 | 66 | 240 | 3.5 | 7.8 | 0.00 | 0.25 | 0.25 | 83 | 1020.1 |
| 20260901073601 | 66 | 248 | 3.5 | 7.8 | 0.00 | 0.25 | 0.25 | 83 | 1020.1 |
| 20260901073501 | 65 | 289 | 3.5 | 7.8 | 0.00 | 0.25 | 0.25 | 83 | 1020.1 |
| 20260901073401 | 65 | 286 | 3.5 | 7.8 | 0.00 | 0.25 | 0.25 | 83 | 1020.1 |
| 20260901073301 | 65 | 288 | 4.3 | 7.8 | 0.00 | 0.25 | 0.25 | 83 | 1020.1 |
| 20260901073200 | 66 | 265 | 4.3 | 8.7 | 0.00 | 0.25 | 0.25 | 82 | 1020.1 |
| 20260901073101 | 65 | 247 | 3.5 | 8.7 | 0.00 | 0.25 | 0.25 | 82 | 1020.1 |
| 20260901073001 | 65 | 264 | 3.5 | 8.7 | 0.00 | 0.25 | 0.25 | 82 | 1020.1 |
| 20260901072901 | 65 | 262 | 3.5 | 8.7 | 0.00 | 0.25 | 0.25 | 82 | 1020.1 |
| 20260901072801 | 66 | 264 | 4.3 | 8.7 | 0.00 | 0.25 | 0.25 | 82 | 1020.0 |
| 20260901072701 | 66 | 274 | 3.5 | 8.7 | 0.00 | 0.25 | 0.25 | 82 | 1019.9 |
| 20260901072604 | 66 | 268 | 3.5 | 8.7 | 0.00 | 0.25 | 0.25 | 82 | 1020.0 |
| 20260901072506 | 65 | 274 | 5.2 | 8.7 | 0.00 | 0.25 | 0.25 | 82 | 1020.0 |
| 20260901072404 | 65 | 252 | 4.3 | 8.7 | 0.00 | 0.25 | 0.25 | 84 | 1020.0 |
| 20260901072308 | 65 | 231 | 4.3 | 8.7 | 0.00 | 0.25 | 0.25 | 85 | 1020.0 |
| 20260901072201 | 65 | 274 | 3.5 | 6.1 | 0.00 | 0.25 | 0.25 | 85 | 1020.0 |
| 20260901072101 | 65 | 269 | 3.5 | 6.1 | 0.00 | 0.25 | 0.25 | 85 | 1020.0 |
| 20260901072002 | 65 | 269 | 2.6 | 6.1 | 0.00 | 0.25 | 0.25 | 85 | 1019.9 |
| 20260901071904 | 65 | 268 | 2.6 | 5.2 | 0.00 | 0.25 | 0.25 | 85 | 1019.9 |
| 20260901071801 | 65 | 266 | 1.7 | 5.2 | 0.00 | 0.25 | 0.25 | 85 | 1019.9 |
| 20260901071702 | 65 | 268 | 1.7 | 5.2 | 0.00 | 0.25 | 0.25 | 84 | 1019.9 |
| 20260901071600 | 65 | 268 | 1.7 | 5.2 | 0.00 | 0.25 | 0.25 | 85 | 1019.9 |
| 20260901071502 | 65 | 268 | 2.6 | 5.2 | 0.00 | 0.25 | 0.25 | 85 | 1019.9 |
| 20260901071401 | 65 | 268 | 2.6 | 5.2 | 0.00 | 0.25 | 0.25 | 85 | 1019.9 |
| 20260901071301 | 65 | 268 | 2.6 | 5.2 | 0.00 | 0.25 | 0.25 | 86 | 1019.9 |
| 20260901071204 | 65 | 265 | 2.6 | 5.2 | 0.00 | 0.25 | 0.25 | 88 | 1019.9 |
| 20260901071102 | 65 | 266 | 2.6 | 5.2 | 0.00 | 0.25 | 0.25 | 89 | 1019.9 |
| 20260901071001 | 65 | 257 | 1.7 | 5.2 | 0.00 | 0.25 | 0.25 | 89 | 1019.9 |
| 20260901070902 | 64 | 259 | 1.7 | 3.5 | 0.00 | 0.25 | 0.25 | 89 | 1019.9 |
| 20260901070801 | 64 | 258 | 1.7 | 3.5 | 0.00 | 0.25 | 0.25 | 89 | 1019.8 |
| 20260901070701 | 64 | 258 | 0.9 | 3.5 | 0.00 | 0.25 | 0.25 | 89 | 1019.9 |
| 20260901070601 | 64 | 258 | 1.7 | 6.1 | 0.00 | 0.25 | 0.25 | 89 | 1019.9 |
| 20260901070500 | 64 | 258 | 2.6 | 6.1 | 0.00 | 0.25 | 0.25 | 89 | 1019.9 |
| 20260901070401 | 64 | 264 | 2.6 | 6.1 | 0.00 | 0.25 | 0.25 | 88 | 1019.9 |
| 20260901070301 | 64 | 264 | 1.7 | 6.1 | 0.00 | 0.25 | 0.25 | 89 | 1019.9 |
| 20260901070201 | 64 | 264 | 1.7 | 6.1 | 0.00 | 0.25 | 0.25 | 89 | 1019.9 |
| 20260901070001 | 64 | 264 | 0.9 | 6.1 | 0.00 | 0.25 | 0.25 | 90 | 1019.9 |
| 20260901065904 | 63 | 264 | 0.9 | 6.1 | 0.00 | 0.25 | 0.25 | 91 | 1019.8 |
| 20260901065800 | 63 | 264 | 1.7 | 6.1 | 0.00 | 0.25 | 0.25 | 90 | 1019.9 |
| 20260901065701 | 63 | 264 | 3.5 | 6.1 | 0.00 | 0.25 | 0.25 | 90 | 1019.9 |
| 20260901065601 | 63 | 262 | 2.6 | 5.2 | 0.00 | 0.25 | 0.25 | 91 | 1019.9 |
| 20260901065501 | 63 | 279 | 1.7 | 4.3 | 0.00 | 0.25 | 0.25 | 91 | 1019.8 |
| 20260901065402 | 63 | 278 | 1.7 | 4.3 | 0.00 | 0.25 | 0.25 | 91 | 1019.8 |
| 20260901065305 | 63 | 285 | 1.7 | 5.2 | 0.00 | 0.25 | 0.25 | 90 | 1019.8 |
| 20260901065202 | 62 | 285 | 2.6 | 5.2 | 0.00 | 0.25 | 0.25 | 90 | 1019.8 |
| 20260901065103 | 62 | 286 | 1.7 | 5.2 | 0.00 | 0.25 | 0.25 | 90 | 1019.8 |
| 20260901065001 | 62 | 286 | 1.7 | 5.2 | 0.00 | 0.25 | 0.25 | 90 | 1019.8 |
| 20260901064900 | 62 | 286 | 1.7 | 5.2 | 0.00 | 0.25 | 0.25 | 91 | 1019.7 |
| 20260901064802 | 62 | 286 | 1.7 | 5.2 | 0.00 | 0.25 | 0.25 | 91 | 1019.7 |
| 20260901064700 | 62 | 286 | 2.6 | 5.2 | 0.00 | 0.25 | 0.25 | 91 | 1019.7 |
| 20260901064601 | 62 | 283 | 2.6 | 5.2 | 0.00 | 0.25 | 0.25 | 91 | 1019.8 |
| 20260901064501 | 62 | 282 | 2.6 | 5.2 | 0.00 | 0.25 | 0.25 | 91 | 1019.7 |
| 20260901064403 | 62 | 283 | 2.6 | 5.2 | 0.00 | 0.25 | 0.25 | 91 | 1019.8 |
| 20260901064303 | 62 | 288 | 2.6 | 4.3 | 0.00 | 0.25 | 0.25 | 92 | 1019.8 |
| 20260901064201 | 62 | 266 | 2.6 | 4.3 | 0.00 | 0.25 | 0.25 | 92 | 1019.7 |
| 20260901064101 | 62 | 265 | 2.6 | 5.2 | 0.00 | 0.25 | 0.25 | 92 | 1019.7 |
| 20260901064001 | 62 | 265 | 2.6 | 5.2 | 0.00 | 0.25 | 0.25 | 92 | 1019.7 |
| 20260901063901 | 62 | 264 | 1.7 | 5.2 | 0.00 | 0.25 | 0.25 | 92 | 1019.7 |
| 20260901063801 | 62 | 265 | 1.7 | 5.2 | 0.00 | 0.25 | 0.25 | 92 | 1019.8 |
| 20260901063702 | 61 | 265 | 2.6 | 5.2 | 0.00 | 0.25 | 0.25 | 91 | 1019.8 |
| 20260901063601 | 61 | 265 | 2.6 | 5.2 | 0.00 | 0.25 | 0.25 | 91 | 1019.7 |
| 20260901063501 | 61 | 265 | 2.6 | 5.2 | 0.00 | 0.25 | 0.25 | 91 | 1019.7 |
| 20260901063403 | 61 | 266 | 2.6 | 5.2 | 0.00 | 0.25 | 0.25 | 91 | 1019.7 |
| 20260901063303 | 61 | 265 | 3.5 | 5.2 | 0.00 | 0.25 | 0.25 | 91 | 1019.7 |
| 20260901063203 | 61 | 265 | 2.6 | 5.2 | 0.00 | 0.25 | 0.25 | 92 | 1019.6 |
| 20260901063102 | 61 | 268 | 2.6 | 5.2 | 0.00 | 0.25 | 0.25 | 92 | 1019.6 |
| 20260901063001 | 61 | 268 | 2.6 | 5.2 | 0.00 | 0.25 | 0.25 | 92 | 1019.6 |
| 20260901062901 | 61 | 266 | 1.7 | 4.3 | 0.00 | 0.25 | 0.25 | 92 | 1019.6 |
| 20260901062801 | 61 | 266 | 1.7 | 4.3 | 0.00 | 0.25 | 0.25 | 92 | 1019.6 |
| 20260901062701 | 61 | 266 | 1.7 | 4.3 | 0.00 | 0.25 | 0.25 | 92 | 1019.7 |
| 20260901062601 | 61 | 268 | 1.7 | 4.3 | 0.00 | 0.25 | 0.25 | 92 | 1019.6 |
| 20260901062502 | 61 | 268 | 1.7 | 4.3 | 0.00 | 0.25 | 0.25 | 92 | 1019.5 |
| 20260901062401 | 61 | 268 | 2.6 | 4.3 | 0.00 | 0.25 | 0.25 | 92 | 1019.6 |
| 20260901062301 | 61 | 261 | 1.7 | 4.3 | 0.00 | 0.25 | 0.25 | 93 | 1019.6 |
| 20260901062206 | 61 | 261 | 2.6 | 4.3 | 0.00 | 0.25 | 0.25 | 93 | 1019.5 |
| 20260901062104 | 61 | 261 | 1.7 | 4.3 | 0.00 | 0.25 | 0.25 | 93 | 1019.5 |
| 20260901062003 | 61 | 261 | 1.7 | 3.5 | 0.00 | 0.25 | 0.25 | 93 | 1019.4 |
| 20260901061901 | 61 | 261 | 1.7 | 3.5 | 0.00 | 0.25 | 0.25 | 93 | 1019.4 |
| 20260901061801 | 61 | 255 | 1.7 | 3.5 | 0.00 | 0.25 | 0.25 | 93 | 1019.5 |
| 20260901061701 | 61 | 255 | 1.7 | 3.5 | 0.00 | 0.25 | 0.25 | 93 | 1019.5 |
| 20260901061601 | 61 | 254 | 1.7 | 3.5 | 0.00 | 0.25 | 0.25 | 93 | 1019.4 |
| 20260901061501 | 60 | 254 | 1.7 | 3.5 | 0.00 | 0.25 | 0.25 | 93 | 1019.4 |
| 20260901061401 | 60 | 254 | 1.7 | 3.5 | 0.00 | 0.25 | 0.25 | 93 | 1019.4 |
| 20260901061301 | 60 | 252 | 1.7 | 4.3 | 0.00 | 0.25 | 0.25 | 93 | 1019.4 |
| 20260901061201 | 60 | 252 | 1.7 | 4.3 | 0.00 | 0.25 | 0.25 | 93 | 1019.4 |
| 20260901061102 | 60 | 252 | 1.7 | 4.3 | 0.00 | 0.25 | 0.25 | 93 | 1019.4 |
| 20260901061001 | 60 | 252 | 1.7 | 4.3 | 0.00 | 0.25 | 0.25 | 93 | 1019.4 |
| 20260901060904 | 60 | 251 | 1.7 | 4.3 | 0.00 | 0.25 | 0.25 | 93 | 1019.3 |
| 20260901060804 | 60 | 251 | 1.7 | 4.3 | 0.00 | 0.25 | 0.25 | 93 | 1019.3 |
| 20260901060704 | 60 | 250 | 1.7 | 4.3 | 0.00 | 0.25 | 0.25 | 93 | 1019.3 |
| 20260901060602 | 60 | 247 | 1.7 | 4.3 | 0.00 | 0.25 | 0.25 | 93 | 1019.2 |
| 20260901060501 | 60 | 244 | 2.6 | 4.3 | 0.00 | 0.25 | 0.25 | 93 | 1019.3 |
| 20260901060401 | 60 | 244 | 2.6 | 4.3 | 0.00 | 0.25 | 0.25 | 93 | 1019.4 |
| 20260901060301 | 60 | 272 | 2.6 | 4.3 | 0.00 | 0.25 | 0.25 | 93 | 1019.3 |
| 20260901060201 | 60 | 272 | 1.7 | 4.3 | 0.00 | 0.25 | 0.25 | 93 | 1019.3 |
| 20260901060101 | 60 | 272 | 1.7 | 4.3 | 0.00 | 0.26 | 0.25 | 93 | 1019.3 |
| 20260901060001 | 60 | 272 | 1.7 | 4.3 | 0.00 | 0.27 | 0.25 | 93 | 1019.3 |
| 20260901055901 | 60 | 272 | 1.7 | 4.3 | 0.00 | 0.28 | 0.25 | 93 | 1019.3 |
| 20260901055801 | 60 | 272 | 1.7 | 4.3 | 0.00 | 0.29 | 0.25 | 93 | 1019.3 |
| 20260901055704 | 60 | 272 | 1.7 | 4.3 | 0.00 | 0.29 | 0.25 | 93 | 1019.2 |
| 20260901055603 | 60 | 272 | 1.7 | 4.3 | 0.00 | 0.30 | 0.25 | 93 | 1019.3 |
| 20260901055503 | 60 | 272 | 1.7 | 4.3 | 0.00 | 0.30 | 0.25 | 93 | 1019.2 |
| 20260901055405 | 60 | 272 | 2.6 | 4.3 | 0.00 | 0.30 | 0.25 | 93 | 1019.2 |
| 20260901055301 | 60 | 272 | 2.6 | 4.3 | 0.00 | 0.30 | 0.25 | 93 | 1019.2 |
| 20260901055201 | 60 | 272 | 2.6 | 4.3 | 0.00 | 0.30 | 0.25 | 93 | 1019.2 |
| 20260901055101 | 60 | 272 | 2.6 | 4.3 | 0.00 | 0.31 | 0.25 | 93 | 1019.2 |
| 20260901055001 | 60 | 272 | 2.6 | 4.3 | 0.00 | 0.31 | 0.25 | 93 | 1019.2 |
| 20260901054902 | 60 | 269 | 2.6 | 4.3 | 0.00 | 0.31 | 0.25 | 94 | 1019.2 |
| 20260901054802 | 60 | 279 | 2.6 | 4.3 | 0.00 | 0.31 | 0.25 | 94 | 1019.1 |
| 20260901054700 | 60 | 279 | 2.6 | 4.3 | 0.00 | 0.31 | 0.25 | 94 | 1019.1 |
| 20260901054602 | 60 | 279 | 2.6 | 4.3 | 0.00 | 0.31 | 0.25 | 94 | 1019.1 |
| 20260901054501 | 60 | 279 | 1.7 | 4.3 | 0.00 | 0.31 | 0.25 | 93 | 1019.1 |
| 20260901054401 | 60 | 281 | 1.7 | 4.3 | 0.00 | 0.31 | 0.25 | 93 | 1019.1 |
| 20260901054303 | 60 | 278 | 1.7 | 4.3 | 0.00 | 0.31 | 0.25 | 93 | 1019.1 |
| 20260901054206 | 60 | 278 | 2.6 | 4.3 | 0.00 | 0.31 | 0.25 | 93 | 1019.1 |
| 20260901054103 | 60 | 278 | 2.6 | 4.3 | 0.00 | 0.31 | 0.25 | 93 | 1019.1 |
| 20260901054002 | 60 | 278 | 1.7 | 4.3 | 0.00 | 0.31 | 0.25 | 93 | 1019.1 |
| 20260901053900 | 60 | 278 | 1.7 | 4.3 | 0.00 | 0.31 | 0.25 | 93 | 1019.1 |
| 20260901053802 | 60 | 278 | 1.7 | 4.3 | 0.00 | 0.31 | 0.25 | 93 | 1019.1 |
| 20260901053701 | 60 | 278 | 1.7 | 4.3 | 0.00 | 0.31 | 0.25 | 93 | 1019.0 |
| 20260901053602 | 60 | 278 | 1.7 | 3.5 | 0.00 | 0.31 | 0.25 | 93 | 1019.0 |
| 20260901053501 | 60 | 278 | 1.7 | 3.5 | 0.00 | 0.31 | 0.25 | 93 | 1019.1 |
| 20260901053403 | 60 | 278 | 1.7 | 3.5 | 0.00 | 0.31 | 0.25 | 93 | 1019.0 |
| 20260901053303 | 60 | 278 | 1.7 | 4.3 | 0.00 | 0.31 | 0.25 | 93 | 1019.0 |
| 20260901053201 | 60 | 278 | 1.7 | 4.3 | 0.00 | 0.31 | 0.25 | 93 | 1019.0 |
| 20260901053101 | 60 | 278 | 2.6 | 4.3 | 0.00 | 0.31 | 0.25 | 93 | 1019.0 |
| 20260901053003 | 60 | 279 | 1.7 | 4.3 | 0.00 | 0.31 | 0.25 | 93 | 1019.1 |
| 20260901052901 | 60 | 279 | 1.7 | 4.3 | 0.00 | 0.31 | 0.25 | 93 | 1019.0 |
| 20260901052801 | 60 | 279 | 1.7 | 4.3 | 0.00 | 0.31 | 0.25 | 93 | 1019.0 |
| 20260901052701 | 60 | 279 | 1.7 | 4.3 | 0.00 | 0.31 | 0.25 | 93 | 1018.9 |
| 20260901052602 | 60 | 279 | 2.6 | 4.3 | 0.00 | 0.31 | 0.25 | 94 | 1018.9 |
| 20260901052502 | 60 | 279 | 3.5 | 4.3 | 0.00 | 0.31 | 0.25 | 94 | 1019.0 |
| 20260901052400 | 60 | 279 | 2.6 | 4.3 | 0.00 | 0.31 | 0.25 | 94 | 1019.0 |
| 20260901052306 | 60 | 279 | 2.6 | 4.3 | 0.00 | 0.31 | 0.25 | 94 | 1019.0 |
| 20260901052202 | 60 | 279 | 2.6 | 4.3 | 0.00 | 0.31 | 0.25 | 94 | 1019.0 |
| 20260901052101 | 60 | 279 | 3.5 | 4.3 | 0.00 | 0.31 | 0.25 | 94 | 1019.0 |
| 20260901052001 | 60 | 281 | 3.5 | 4.3 | 0.00 | 0.31 | 0.25 | 94 | 1018.9 |
| 20260901051901 | 60 | 279 | 2.6 | 4.3 | 0.00 | 0.31 | 0.25 | 94 | 1019.0 |
| 20260901051801 | 60 | 282 | 1.7 | 3.5 | 0.00 | 0.31 | 0.25 | 94 | 1018.9 |
| 20260901051701 | 60 | 281 | 2.6 | 3.5 | 0.00 | 0.31 | 0.25 | 94 | 1018.9 |
| 20260901051601 | 60 | 279 | 2.6 | 3.5 | 0.00 | 0.31 | 0.25 | 94 | 1018.9 |
| 20260901051501 | 60 | 279 | 1.7 | 3.5 | 0.00 | 0.31 | 0.25 | 94 | 1018.9 |
| 20260901051403 | 60 | 279 | 2.6 | 4.3 | 0.01 | 0.31 | 0.25 | 94 | 1018.9 |
| 20260901051303 | 60 | 279 | 2.6 | 4.3 | 0.01 | 0.31 | 0.25 | 94 | 1018.9 |
| 20260901051205 | 60 | 281 | 1.7 | 4.3 | 0.01 | 0.31 | 0.25 | 94 | 1018.9 |
| 20260901051104 | 60 | 281 | 1.7 | 4.3 | 0.01 | 0.31 | 0.25 | 94 | 1018.9 |
| 20260901051002 | 60 | 279 | 1.7 | 4.3 | 0.01 | 0.31 | 0.25 | 94 | 1018.8 |
| 20260901050901 | 60 | 279 | 1.7 | 4.3 | 0.01 | 0.31 | 0.25 | 94 | 1018.9 |
| 20260901050801 | 60 | 279 | 1.7 | 4.3 | 0.01 | 0.31 | 0.25 | 95 | 1018.8 |
| 20260901050701 | 60 | 279 | 1.7 | 4.3 | 0.01 | 0.31 | 0.25 | 95 | 1018.8 |
| 20260901050602 | 60 | 281 | 2.6 | 4.3 | 0.01 | 0.31 | 0.25 | 95 | 1018.9 |
| 20260901050501 | 60 | 281 | 2.6 | 4.3 | 0.01 | 0.31 | 0.25 | 95 | 1018.9 |
| 20260901050401 | 60 | 276 | 2.6 | 4.3 | 0.01 | 0.31 | 0.25 | 95 | 1018.8 |
| 20260901050302 | 60 | 278 | 1.7 | 4.3 | 0.01 | 0.31 | 0.25 | 95 | 1018.8 |
| 20260901050201 | 60 | 278 | 1.7 | 4.3 | 0.01 | 0.31 | 0.25 | 94 | 1018.8 |
| 20260901050001 | 60 | 278 | 2.6 | 4.3 | 0.01 | 0.31 | 0.24 | 94 | 1018.8 |
| 20260901045901 | 60 | 278 | 1.7 | 4.3 | 0.01 | 0.31 | 0.24 | 94 | 1018.8 |
| 20260901045801 | 60 | 278 | 1.7 | 4.3 | 0.01 | 0.31 | 0.24 | 94 | 1018.8 |
| 20260901045702 | 60 | 278 | 1.7 | 4.3 | 0.01 | 0.31 | 0.24 | 94 | 1018.7 |
| 20260901045602 | 60 | 278 | 1.7 | 4.3 | 0.01 | 0.31 | 0.24 | 94 | 1018.7 |
| 20260901045503 | 60 | 278 | 1.7 | 4.3 | 0.01 | 0.31 | 0.24 | 94 | 1018.7 |
| 20260901045402 | 60 | 278 | 2.6 | 4.3 | 0.01 | 0.31 | 0.24 | 94 | 1018.7 |
| 20260901045302 | 60 | 278 | 1.7 | 4.3 | 0.01 | 0.31 | 0.24 | 95 | 1018.7 |
| 20260901045201 | 60 | 279 | 1.7 | 4.3 | 0.01 | 0.31 | 0.24 | 95 | 1018.6 |
| 20260901045101 | 60 | 279 | 1.7 | 4.3 | 0.01 | 0.31 | 0.24 | 95 | 1018.7 |
| 20260901045003 | 60 | 279 | 1.7 | 4.3 | 0.01 | 0.32 | 0.24 | 95 | 1018.6 |
| 20260901044902 | 60 | 279 | 1.7 | 4.3 | 0.01 | 0.32 | 0.24 | 95 | 1018.6 |
| 20260901044801 | 60 | 279 | 2.6 | 4.3 | 0.01 | 0.33 | 0.24 | 96 | 1018.6 |
| 20260901044701 | 60 | 279 | 1.7 | 5.2 | 0.01 | 0.33 | 0.24 | 96 | 1018.6 |
| 20260901044602 | 60 | 279 | 1.7 | 5.2 | 0.01 | 0.33 | 0.24 | 96 | 1018.6 |
| 20260901044505 | 60 | 279 | 2.6 | 5.2 | 0.01 | 0.33 | 0.24 | 96 | 1018.7 |
| 20260901044403 | 60 | 279 | 2.6 | 5.2 | 0.01 | 0.34 | 0.24 | 97 | 1018.6 |
| 20260901044303 | 60 | 278 | 2.6 | 5.2 | 0.01 | 0.34 | 0.24 | 97 | 1018.7 |
| 20260901044201 | 0 | 278 | 1.7 | 5.2 | 0.01 | 0.34 | 0.24 | 1018.6 | |
| 20260901044101 | 60 | 276 | 1.7 | 5.2 | 0.01 | 0.34 | 0.24 | 97 | 1018.7 |
| 20260901044001 | 60 | 276 | 1.7 | 5.2 | 0.01 | 0.34 | 0.24 | 97 | 1018.7 |
| 20260901043901 | 60 | 276 | 2.6 | 5.2 | 0.01 | 0.35 | 0.24 | 97 | 1018.6 |
| 20260901043802 | 60 | 276 | 2.6 | 5.2 | 0.01 | 0.35 | 0.24 | 97 | 1018.6 |
| 20260901043701 | 60 | 278 | 1.7 | 3.5 | 0.01 | 0.35 | 0.24 | 97 | 1018.6 |
| 20260901043601 | 60 | 278 | 1.7 | 4.3 | 0.01 | 0.35 | 0.24 | 97 | 1018.6 |
| 20260901043501 | 60 | 278 | 1.7 | 4.3 | 0.01 | 0.35 | 0.24 | 97 | 1018.6 |
| 20260901043401 | 60 | 278 | 1.7 | 4.3 | 0.01 | 0.35 | 0.24 | 97 | 1018.6 |
| 20260901043302 | 60 | 278 | 1.7 | 4.3 | 0.01 | 0.35 | 0.24 | 97 | 1018.6 |
| 20260901043203 | 60 | 278 | 1.7 | 4.3 | 0.01 | 0.35 | 0.24 | 97 | 1018.7 |
| 20260901043103 | 60 | 278 | 1.7 | 4.3 | 0.01 | 0.35 | 0.24 | 97 | 1018.6 |
| 20260901043002 | 60 | 278 | 1.7 | 4.3 | 0.01 | 0.35 | 0.24 | 97 | 1018.6 |
| 20260901042900 | 60 | 278 | 1.7 | 4.3 | 0.01 | 0.35 | 0.24 | 97 | 1018.6 |
| 20260901042802 | 60 | 278 | 2.6 | 4.3 | 0.01 | 0.35 | 0.24 | 97 | 1018.6 |
| 20260901042700 | 60 | 278 | 1.7 | 4.3 | 0.01 | 0.35 | 0.24 | 97 | 1018.6 |
| 20260901042601 | 60 | 279 | 1.7 | 3.5 | 0.01 | 0.36 | 0.24 | 97 | 1018.6 |
| 20260901042502 | 60 | 279 | 2.6 | 3.5 | 0.01 | 0.37 | 0.24 | 97 | 1018.6 |
| 20260901042400 | 60 | 279 | 2.6 | 3.5 | 0.01 | 0.37 | 0.24 | 97 | 1018.6 |
| 20260901042301 | 60 | 279 | 1.7 | 3.5 | 0.01 | 0.37 | 0.24 | 97 | 1018.6 |
| 20260901042201 | 60 | 281 | 1.7 | 3.5 | 0.01 | 0.37 | 0.24 | 97 | 1018.6 |
| 20260901042103 | 60 | 279 | 2.6 | 2.6 | 0.01 | 0.37 | 0.24 | 97 | 1018.5 |
| 20260901042001 | 60 | 279 | 1.7 | 2.6 | 0.01 | 0.37 | 0.24 | 97 | 1018.5 |
| 20260901041904 | 60 | 279 | 1.7 | 2.6 | 0.01 | 0.37 | 0.24 | 97 | 1018.4 |
| 20260901041803 | 60 | 279 | 1.7 | 2.6 | 0.01 | 0.37 | 0.24 | 97 | 1018.4 |
| 20260901041701 | 60 | 279 | 1.7 | 2.6 | 0.01 | 0.37 | 0.24 | 97 | 1018.4 |
| 20260901041601 | 0 | 279 | 1.7 | 2.6 | 0.01 | 0.37 | 0.24 | 1018.3 | |
| 20260901041500 | 0 | 279 | 1.7 | 2.6 | 0.01 | 0.37 | 0.24 | 1018.3 | |
| 20260901041402 | 0 | 279 | 1.7 | 2.6 | 0.00 | 0.37 | 0.24 | 1018.2 | |
| 20260901041301 | 0 | 279 | 0.9 | 2.6 | 0.00 | 0.37 | 0.24 | 1018.3 | |
| 20260901041201 | 0 | 279 | 0.9 | 2.6 | 0.00 | 0.37 | 0.24 | 1018.3 | |
| 20260901041101 | 0 | 279 | 1.7 | 3.5 | 0.00 | 0.37 | 0.24 | 1018.3 | |
| 20260901041003 | 0 | 279 | 1.7 | 3.5 | 0.00 | 0.37 | 0.24 | 1018.2 | |
| 20260901040901 | 0 | 278 | 1.7 | 3.5 | 0.00 | 0.37 | 0.24 | 1018.2 | |
| 20260901040801 | 0 | 278 | 1.7 | 3.5 | 0.00 | 0.37 | 0.24 | 1018.2 | |
| 20260901040700 | 0 | 278 | 0.9 | 3.5 | 0.00 | 0.37 | 0.24 | 1018.3 | |
| 20260901040601 | 0 | 278 | 0.9 | 3.5 | 0.00 | 0.37 | 0.24 | 1018.2 | |
| 20260901040502 | 0 | 278 | 1.7 | 3.5 | 0.00 | 0.37 | 0.24 | 1018.2 | |
| 20260901040402 | 0 | 278 | 1.7 | 3.5 | 0.00 | 0.37 | 0.24 | 1018.2 | |
| 20260901040302 | 0 | 278 | 1.7 | 3.5 | 0.00 | 0.37 | 0.24 | 1018.2 | |
| 20260901040203 | 0 | 278 | 1.7 | 3.5 | 0.00 | 0.37 | 0.24 | 1018.2 | |
| 20260901040001 | 0 | 278 | 1.7 | 3.5 | 0.00 | 0.37 | 0.24 | 1018.2 | |
| 20260901035900 | 0 | 278 | 1.7 | 3.5 | 0.00 | 0.37 | 0.24 | 1018.2 | |
| 20260901035801 | 0 | 278 | 1.7 | 3.5 | 0.00 | 0.37 | 0.24 | 1018.3 | |
| 20260901035702 | 0 | 278 | 1.7 | 3.5 | 0.00 | 0.37 | 0.24 | 1018.2 | |
| 20260901035604 | 0 | 278 | 1.7 | 3.5 | 0.00 | 0.37 | 0.24 | 1018.2 | |
| 20260901035501 | 0 | 278 | 1.7 | 3.5 | 0.00 | 0.37 | 0.24 | 1018.2 | |
| 20260901035401 | 0 | 278 | 1.7 | 3.5 | 0.00 | 0.37 | 0.24 | 1018.2 | |
| 20260901035305 | 0 | 271 | 1.7 | 3.5 | 0.00 | 0.37 | 0.24 | 1018.2 | |
| 20260901035202 | 0 | 271 | 1.7 | 3.5 | 0.00 | 0.37 | 0.24 | 1018.2 | |
| 20260901035103 | 0 | 271 | 1.7 | 3.5 | 0.00 | 0.37 | 0.24 | 1018.2 | |
| 20260901035001 | 0 | 271 | 1.7 | 3.5 | 0.00 | 0.37 | 0.24 | 1018.3 | |
| 20260901034901 | 0 | 269 | 1.7 | 3.5 | 0.00 | 0.37 | 0.24 | 1018.1 | |
| 20260901034801 | 0 | 271 | 1.7 | 3.5 | 0.00 | 0.37 | 0.24 | 1018.2 | |
| 20260901034701 | 0 | 271 | 1.7 | 2.6 | 0.00 | 0.37 | 0.24 | 1018.2 | |
| 20260901034603 | 0 | 269 | 1.7 | 2.6 | 0.00 | 0.37 | 0.24 | 1018.2 | |
| 20260901034500 | 0 | 269 | 1.7 | 2.6 | 0.00 | 0.37 | 0.24 | 1018.2 | |
| 20260901034400 | 0 | 269 | 1.7 | 3.5 | 0.00 | 0.37 | 0.24 | 1018.2 | |
| 20260901034302 | 0 | 269 | 1.7 | 3.5 | 0.00 | 0.37 | 0.24 | 1018.2 | |
| 20260901034203 | 0 | 269 | 1.7 | 3.5 | 0.00 | 0.37 | 0.24 | 1018.1 | |
| 20260901034105 | 0 | 269 | 1.7 | 3.5 | 0.00 | 0.37 | 0.24 | 1018.1 | |
| 20260901033902 | 0 | 269 | 1.7 | 3.5 | 0.00 | 0.37 | 0.24 | 1018.1 | |
| 20260901033700 | 0 | 269 | 1.7 | 3.5 | 0.00 | 0.37 | 0.24 | 1018.1 | |
| 20260901033601 | 0 | 269 | 1.7 | 4.3 | 0.00 | 0.37 | 0.24 | 1018.1 | |
| 20260901033504 | 0 | 269 | 1.7 | 4.3 | 0.00 | 0.37 | 0.24 | 1018.2 | |
| 20260901033404 | 0 | 269 | 2.6 | 4.3 | 0.00 | 0.37 | 0.24 | 1018.2 | |
| 20260901033301 | 0 | 269 | 2.6 | 4.3 | 0.00 | 0.37 | 0.24 | 1018.2 | |
| 20260901033201 | 0 | 268 | 1.7 | 4.3 | 0.00 | 0.37 | 0.24 | 1018.2 | |
| 20260901033101 | 0 | 268 | 1.7 | 4.3 | 0.00 | 0.37 | 0.24 | 1018.2 | |
| 20260901033001 | 0 | 290 | 1.7 | 4.3 | 0.00 | 0.37 | 0.24 | 1018.2 | |
| 20260901032902 | 0 | 290 | 0.9 | 4.3 | 0.00 | 0.37 | 0.24 | 1018.2 | |
| 20260901032803 | 0 | 290 | 1.7 | 4.3 | 0.00 | 0.37 | 0.24 | 1018.2 | |
| 20260901032704 | 0 | 290 | 1.7 | 4.3 | 0.00 | 0.37 | 0.24 | 1018.2 | |
| 20260901032604 | 0 | 295 | 1.7 | 4.3 | 0.00 | 0.37 | 0.24 | 1018.2 | |
| 20260901032503 | 0 | 295 | 1.7 | 4.3 | 0.00 | 0.37 | 0.24 | 1018.2 | |
| 20260901032402 | 0 | 295 | 1.7 | 4.3 | 0.00 | 0.37 | 0.24 | 1018.2 | |
| 20260901032300 | 0 | 295 | 1.7 | 4.3 | 0.00 | 0.37 | 0.24 | 1018.2 | |
| 20260901032202 | 0 | 296 | 2.6 | 3.5 | 0.00 | 0.37 | 0.24 | 1018.2 | |
| 20260901032101 | 0 | 296 | 2.6 | 3.5 | 0.00 | 0.37 | 0.24 | 1018.2 | |
| 20260901032004 | 0 | 298 | 2.6 | 3.5 | 0.00 | 0.37 | 0.24 | 1018.2 | |
| 20260901031904 | 0 | 298 | 1.7 | 3.5 | 0.00 | 0.37 | 0.24 | 1018.3 | |
| 20260901031805 | 0 | 298 | 2.6 | 3.5 | 0.00 | 0.37 | 0.24 | 1018.2 | |
| 20260901031702 | 0 | 299 | 1.7 | 3.5 | 0.00 | 0.37 | 0.24 | 1018.2 | |
| 20260901031603 | 0 | 298 | 1.7 | 3.5 | 0.00 | 0.37 | 0.24 | 1018.2 | |
| 20260901031501 | 0 | 299 | 1.7 | 3.5 | 0.00 | 0.37 | 0.24 | 1018.2 | |
| 20260901031403 | 0 | 299 | 1.7 | 3.5 | 0.00 | 0.37 | 0.24 | 1018.1 | |
| 20260901031303 | 0 | 299 | 1.7 | 3.5 | 0.00 | 0.37 | 0.24 | 1018.2 | |
| 20260901031202 | 0 | 299 | 1.7 | 3.5 | 0.00 | 0.37 | 0.24 | 1018.1 | |
| 20260901031103 | 0 | 299 | 1.7 | 3.5 | 0.00 | 0.37 | 0.24 | 1018.1 | |
| 20260901031005 | 0 | 299 | 1.7 | 3.5 | 0.00 | 0.37 | 0.24 | 1018.1 | |
| 20260901030903 | 0 | 299 | 1.7 | 5.2 | 0.00 | 0.37 | 0.24 | 1018.1 | |
| 20260901030801 | 0 | 299 | 1.7 | 5.2 | 0.00 | 0.37 | 0.24 | 1018.1 | |
| 20260901030701 | 0 | 299 | 1.7 | 5.2 | 0.00 | 0.37 | 0.24 | 1018.1 | |
| 20260901030600 | 0 | 299 | 2.6 | 5.2 | 0.00 | 0.37 | 0.24 | 1018.0 | |
| 20260901030501 | 0 | 300 | 1.7 | 5.2 | 0.00 | 0.37 | 0.24 | 1018.1 | |
| 20260901030401 | 0 | 300 | 1.7 | 5.2 | 0.00 | 0.37 | 0.24 | 1018.1 | |
| 20260901030301 | 0 | 300 | 1.7 | 5.2 | 0.00 | 0.37 | 0.24 | 1018.0 | |
| 20260901030202 | 0 | 300 | 2.6 | 5.2 | 0.00 | 0.37 | 0.24 | 1018.0 | |
| 20260901030000 | 0 | 303 | 2.6 | 5.2 | 0.00 | 0.37 | 0.24 | 1018.0 | |
| 20260901025905 | 0 | 303 | 1.7 | 4.3 | 0.00 | 0.37 | 0.24 | 1018.0 | |
| 20260901025801 | 0 | 303 | 1.7 | 4.3 | 0.00 | 0.37 | 0.24 | 1018.0 | |
| 20260901025701 | 0 | 306 | 2.6 | 4.3 | 0.00 | 0.37 | 0.24 | 1018.0 | |
| 20260901025601 | 0 | 306 | 1.7 | 4.3 | 0.00 | 0.37 | 0.24 | 1018.1 | |
| 20260901025455 | 0 | 306 | 2.6 | 4.3 | 0.00 | 0.37 | 0.24 | 1018.1 | |
| 20260901025353 | 0 | 276 | 2.6 | 4.3 | 0.00 | 0.37 | 0.24 | 1018.1 | |
| 20260901025250 | 0 | 276 | 2.6 | 4.3 | 0.00 | 0.37 | 0.24 | 1018.0 | |
| 20260901025149 | 0 | 275 | 2.6 | 7.8 | 0.00 | 0.37 | 0.24 | 1018.0 | |
| 20260901025051 | 0 | 275 | 2.6 | 7.8 | 0.00 | 0.37 | 0.24 | 1018.1 | |
| 20260901024950 | 0 | 272 | 1.7 | 7.8 | 0.00 | 0.37 | 0.24 | 1018.1 | |
| 20260901024849 | 0 | 271 | 1.7 | 7.8 | 0.00 | 0.37 | 0.24 | 1018.1 | |
| 20260901024748 | 0 | 271 | 2.6 | 7.8 | 0.00 | 0.37 | 0.24 | 1018.1 | |
| 20260901024645 | 0 | 278 | 1.7 | 7.8 | 0.00 | 0.37 | 0.24 | 1018.1 | |
| 20260901024547 | 0 | 278 | 2.6 | 7.8 | 0.00 | 0.37 | 0.24 | 1018.1 | |
| 20260901024445 | 0 | 276 | 2.6 | 7.8 | 0.00 | 0.37 | 0.24 | 1018.1 | |
| 20260901024344 | 0 | 275 | 2.6 | 7.8 | 0.00 | 0.37 | 0.24 | 1018.1 | |
| 20260901024244 | 0 | 275 | 1.7 | 7.8 | 0.00 | 0.37 | 0.24 | 1018.1 | |
| 20260901024141 | 0 | 212 | 1.7 | 3.5 | 0.00 | 0.37 | 0.24 | 1018.1 | |
| 20260901024040 | 0 | 212 | 2.6 | 3.5 | 0.00 | 0.37 | 0.24 | 1018.1 | |
| 20260901023939 | 0 | 212 | 1.7 | 3.5 | 0.00 | 0.37 | 0.24 | 1018.1 | |
| 20260901023841 | 0 | 195 | 0.9 | 2.6 | 0.00 | 0.37 | 0.24 | 1018.1 | |
| 20260901023735 | 0 | 195 | 0.9 | 2.6 | 0.00 | 0.37 | 0.24 | 1018.0 | |
| 20260901023633 | 0 | 193 | 0.9 | 2.6 | 0.00 | 0.37 | 0.24 | 1018.1 | |
| 20260901023530 | 0 | 193 | 0.9 | 2.6 | 0.00 | 0.37 | 0.24 | 1018.0 | |
| 20260901023429 | 0 | 193 | 1.7 | 2.6 | 0.00 | 0.37 | 0.24 | 1018.0 | |
| 20260901023330 | 0 | 193 | 0.9 | 0.9 | 0.00 | 0.37 | 0.24 | 1018.0 | |
| 20260901023226 | 0 | 193 | 0.0 | 0.9 | 0.00 | 0.37 | 0.24 | 1018.0 | |
| 20260901023121 | 0 | 193 | 0.0 | 0.9 | 0.00 | 0.37 | 0.24 | 1018.0 | |
| 20260901023015 | 0 | 193 | 0.0 | 0.9 | 0.00 | 0.37 | 0.24 | 1018.0 | |
| 20260901022912 | 0 | 193 | 0.0 | 0.9 | 0.00 | 0.37 | 0.24 | 1018.1 | |
| 20260901022807 | 0 | 193 | 0.0 | 0.9 | 0.00 | 0.37 | 0.24 | 1018.0 | |
| 20260901022707 | 0 | 193 | 0.0 | 0.9 | 0.00 | 0.37 | 0.24 | 1018.0 | |
| 20260901022605 | 0 | 193 | 0.0 | 1.7 | 0.00 | 0.37 | 0.24 | 1018.0 | |
| 20260901022503 | 0 | 193 | 0.0 | 1.7 | 0.00 | 0.37 | 0.24 | 1018.0 | |
| 20260901022401 | 0 | 193 | 0.0 | 1.7 | 0.00 | 0.37 | 0.24 | 1018.0 | |
| 20260901022305 | 0 | 193 | 0.0 | 3.5 | 0.00 | 0.37 | 0.24 | 1018.0 | |
| 20260901022204 | 0 | 193 | 0.0 | 3.5 | 0.00 | 0.37 | 0.24 | 1018.0 | |
| 20260901022103 | 0 | 193 | 0.0 | 3.5 | 0.00 | 0.37 | 0.24 | 1018.0 | |
| 20260901022003 | 0 | 193 | 0.0 | 3.5 | 0.00 | 0.37 | 0.24 | 1018.0 | |
| 20260901021902 | 0 | 193 | 0.0 | 3.5 | 0.00 | 0.37 | 0.24 | 1018.0 | |
| 20260901021800 | 0 | 193 | 0.9 | 3.5 | 0.00 | 0.37 | 0.24 | 1018.0 | |
| 20260901021700 | 0 | 193 | 0.9 | 3.5 | 0.00 | 0.37 | 0.24 | 1018.0 | |
| 20260901021601 | 0 | 193 | 0.9 | 3.5 | 0.00 | 0.37 | 0.24 | 1018.0 | |
| 20260901021501 | 0 | 193 | 1.7 | 3.5 | 0.00 | 0.37 | 0.24 | 1018.0 | |
| 20260901021401 | 0 | 193 | 1.7 | 3.5 | 0.00 | 0.37 | 0.24 | 1018.0 | |
| 20260901021301 | 0 | 193 | 0.9 | 3.5 | 0.00 | 0.37 | 0.24 | 1018.0 | |
| 20260901021201 | 0 | 193 | 0.0 | 3.5 | 0.00 | 0.37 | 0.24 | 1018.0 | |
| 20260901021100 | 0 | 193 | 0.0 | 3.5 | 0.00 | 0.37 | 0.24 | 1018.0 | |
| 20260901021000 | 0 | 192 | 0.0 | 3.5 | 0.00 | 0.37 | 0.24 | 1018.0 | |
| 20260901020903 | 0 | 193 | 0.0 | 3.5 | 0.00 | 0.37 | 0.24 | 1018.0 | |
| 20260901020800 | 0 | 193 | 0.9 | 3.5 | 0.00 | 0.37 | 0.24 | 1018.0 | |
| 20260901020700 | 0 | 193 | 0.9 | 3.5 | 0.00 | 0.37 | 0.24 | 1018.0 | |
| 20260901020601 | 0 | 192 | 1.7 | 3.5 | 0.00 | 0.37 | 0.24 | 1018.0 | |
| 20260901020501 | 0 | 192 | 1.7 | 3.5 | 0.00 | 0.37 | 0.24 | 1018.0 | |
| 20260901020401 | 0 | 192 | 1.7 | 3.5 | 0.00 | 0.37 | 0.24 | 1018.0 | |
| 20260901020303 | 0 | 190 | 0.9 | 3.5 | 0.00 | 0.37 | 0.24 | 1017.9 | |
| 20260901020202 | 0 | 190 | 0.0 | 3.5 | 0.00 | 0.37 | 0.24 | 1017.9 | |
| 20260901020101 | 0 | 190 | 0.9 | 3.5 | 0.00 | 0.37 | 0.24 | 1017.9 | |
| 20260901020002 | 0 | 190 | 0.9 | 3.5 | 0.01 | 0.36 | 0.24 | 1018.0 | |
| 20260901015901 | 0 | 190 | 1.7 | 3.5 | 0.01 | 0.36 | 0.24 | 1017.9 | |
| 20260901015800 | 0 | 190 | 1.7 | 3.5 | 0.01 | 0.36 | 0.24 | 1017.9 | |
| 20260901015700 | 0 | 189 | 2.6 | 3.5 | 0.02 | 0.36 | 0.24 | 1018.0 | |
| 20260901015602 | 0 | 189 | 2.6 | 3.5 | 0.03 | 0.36 | 0.24 | 1017.9 | |
| 20260901015501 | 0 | 188 | 1.7 | 3.5 | 0.06 | 0.36 | 0.24 | 1017.9 | |
| 20260901015400 | 0 | 188 | 0.9 | 3.5 | 0.09 | 0.36 | 0.24 | 1018.0 | |
| 20260901015301 | 0 | 188 | 1.7 | 3.5 | 0.13 | 0.36 | 0.24 | 1018.0 | |
| 20260901015201 | 0 | 188 | 1.7 | 3.5 | 0.24 | 0.36 | 0.24 | 1017.9 | |
| 20260901015101 | 0 | 188 | 1.7 | 3.5 | 0.24 | 0.36 | 0.24 | 1017.9 | |
| 20260901015001 | 0 | 188 | 1.7 | 3.5 | 0.24 | 0.36 | 0.24 | 1017.9 |